     2              Observation         GPS                 RINEX VERSION / TYPE
ASRINEXO V2.2.0 UX USGS 18-OCT-94 16:13                     PGM / RUN BY / DATE
                                                            COMMENT
Original Marker Name: rmr1 Red_Mt_Rm1_1991_NCER             COMMENT
Campaign Name: USGS-San Jacinto                             COMMENT
4-Character Station Name: RMR1                              COMMENT
6-Character Antenna Code: ASHL12                            COMMENT
Vertical Measurement Point: BBE                             COMMENT
Vertical Offset to Rinex Ref. Point: 0.0595                 COMMENT
Radial Measurement Point: EGP                               COMMENT
Radial Offset to Rinex Ref. Point: 0.1424                   COMMENT
Antenna Height from Field Measurement: 1.4280 m             COMMENT
Additional Antenna Identification Info.:                    COMMENT
Original Ashtech L1/L2                                      COMMENT
Revised Rinex header created by UCSD GPS archive for        COMMENT
SCEC DC on 22-Sep-1999 (1999.265) 23:43:59 GMT              COMMENT
For assistance contact dagnew@ucsd.edu or hjohnson@ucsd.edu COMMENT
                                                            COMMENT
RMR1 RED_MT_RM1_1991_NCER                                   MARKER NAME
                                                            MARKER NUMBER
KWC US GEOLOGICAL SURVEY                                    OBSERVER / AGENCY
763 ASHTECH L-XII 7A                                        REC # / TYPE / VERS
26 ASHTECH GEODETIC L                                       ANT # / TYPE
 -2401308.9500 -4744069.0600  3513120.5500                  APPROX POSITION XYZ
        1.3614        0.0000        0.0000                  ANTENNA: DELTA H/E/N
     1     2     0                                          WAVELENGTH FACT L1/2
     3    C1    L1    L2                                    # / TYPES OF OBSERV
    30                                                      INTERVAL
  1992     5    30     4    46   30.000000                  TIME OF FIRST OBS
  1992     5    30     8    18    0.000000                  TIME OF LAST OBS
                                                            END OF HEADER
 92  5 30  4 46 30.0000000  0  3  3 23 17
  20407016.456     9376050.46718     40093.522 1
  21068512.832      -35138.46718    -29529.696 4
  20707546.014    10339383.62719      -882.482 1
 92  5 30  4 47  0.0000000  0  3  3 23 17
  20410063.157     9392057.591 8     52566.621 3
  21061646.026      -71217.339 8    -57643.088 5
  20707348.721    10338355.490 9     -1683.753 4
 92  5 30  4 47 30.0000000  0  3  3 23 17
  20413206.661     9408580.158 8     65441.370 5
  21054856.356     -106908.081 8    -85454.026 6
  20707195.857    10337553.173 9     -2308.922 6
 92  5 30  4 48  0.0000000  0  3  3 23 17
  20416465.345     9425679.595 8     78765.607 5
  21048148.740     -142144.275 8   -112910.768 7
  20707099.383    10337041.158 9     -2707.852 7
 92  5 30  4 48 30.0000000  0  3  3 23 17
  20419818.284     9443324.452 8     92514.855 6
  21041530.851     -176943.761 8   -140027.199 7
  20707051.956    10336787.089 9     -2905.807 8
 92  5 30  4 49  0.0000000  0  3  3 23 17
  20423280.347     9461515.901 8    106689.999 6
  21034993.727     -211282.277 8   -166784.482 8
  20707049.258    10336780.197 9     -2911.174 8
 92  5 30  4 49 30.0000000  0  3  3 23 17
  20426843.860     9480237.011 8    121277.887 6
  21028548.249     -245153.696 8   -193177.767 8
  20707089.880    10336997.400 9     -2741.903 9
 92  5 30  4 50  0.0000000  0  3  3 23 17
  20430503.487     9499476.544 8    136269.741 6
  21022191.120     -278557.791 8   -219206.882 8
  20707170.194    10337422.009 9     -2411.002 9
 92  5 30  4 50 30.0000000  0  3  3 23 17
  20434265.193     9519233.192 8    151664.537 7
  21015921.890     -311510.650 8   -244884.410 8
  20707292.210    10338065.839 9     -1909.307 9
 92  5 30  4 51  0.0000000  0  4  3 21 23 17
  20438124.990     9539516.413 8    167469.660 7
  23784807.041    13122805.53015   -197829.559
  21009738.371     -344015.841 8   -270213.080 8
  20707462.072    10338946.867 9     -1222.764 9
 92  5 30  4 51 30.0000000  0  4  3 21 23 17
  20442086.178     9560345.616 8    183700.205 7
  23769314.606    13041411.760 5   -261253.175 1
  21003636.515     -376073.067 8   -295192.736 8
  20707678.193    10340086.112 9      -335.027 9
 92  5 30  4 52  0.0000000  0  4  3 21 23 17
  20446155.471     9581719.305 8    200355.021 7
  23753864.142    12960261.962 5   -324486.845 1
  20997616.443     -407703.002 8   -319839.407 8
  20707943.689    10341475.970 9       747.998 9
 92  5 30  4 52 30.0000000  0  4  3 21 23 17
  20450328.222     9603643.685 8    217438.959 7
  23738475.765    12879353.348 5   -387532.370 1
  20991680.642     -438898.198 8   -344147.329 8
  20708253.494    10343116.137 9      2026.072 9
 92  5 30  4 53  0.0000000  0  4  3 21 23 17
  20454605.901     9626111.395 8    234946.291 7
  23723123.633    12798683.313 5   -450392.083 2
  20985825.995     -469659.177 8   -368116.911 8
  20708605.571    10344971.857 9      3472.099 9
 92  5 30  4 53 30.0000000  0  4  3 21 23 17
  20458980.562     9649122.338 8    252876.883 7
  23707817.250    12718251.764 5   -513065.924 2
  20980052.322     -499996.153 8   -391756.093 8
  20709000.008    10347026.963 9      5073.492 9
 92  5 30  4 54  0.0000000  0  4  3 21 23 17
  20463462.700     9672674.693 8    271229.383 7
  23692556.135    12638042.194 5   -575566.826 2
  20974361.122     -529911.287 8   -415066.532 9
  20709430.420    10349290.093 9      6836.995 9
 92  5 30  4 54 30.0000000  0  4  3 21 23 17
  20468049.794     9696772.096 8    290006.573 7
  23677333.363    12558060.009 5   -637890.569 2
  20968748.168     -559405.383 8   -438048.917 9
  20709901.274    10351768.182 9      8767.967 9
 92  5 30  4 55  0.0000000  0  4  3 21 23 17
  20472738.998     9721406.281 8    309202.049 7
  23662155.441    12478306.239 5   -700036.265 2
  20963208.453     -588497.427 8   -460718.020 9
  20710413.229    10354459.989 9     10865.494 9
 92  5 30  4 55 30.0000000  0  4  3 21 23 17
  20477532.799     9746589.776 8    328825.547 7
  23647030.911    12398778.255 5   -762006.019 2
  20957756.727     -617175.554 8   -483064.600 9
  20710970.633    10357392.458 9     13150.549 9
 92  5 30  4 56  0.0000000  0  4  3 21 23 17
  20482427.241     9772315.818 8    348871.813 7
  23631933.633    12319473.386 6   -823801.970 2
  20952375.602     -645424.015 8   -505076.333 9
  20711576.304    10360567.104 9     15624.324 9
 92  5 30  4 56 30.0000000  0  4  3 21 23 17
  20487424.361     9798585.384 8    369341.616 7
  23616882.732    12240405.737 5   -885413.080 2
  20947087.803     -673235.167 8   -526747.336 9
  20712221.607    10363968.987 9     18275.148 9
 92  5 30  4 57  0.0000000  0  4  3 21 23 17
  20492527.009     9825397.197 8    390233.936 7
  23601881.417    12161559.229 5   -946851.863 2
  20941884.695     -700596.184 8   -548067.576 8
  20712907.413    10367592.709 9     21098.845 9
 92  5 30  4 57 30.0000000  0  4  3 21 23 17
  20497733.534     9852761.495 8    411556.757 7
  23586919.286    12082925.039 5  -1008125.187 2
  20936763.160     -727495.147 8   -569027.782 8
  20713642.923    10371442.880 9     24099.000 9
 92  5 30  4 58  0.0000000  0  4  3 21 23 17
  20503043.818     9880674.299 8    433306.997 7
  23571995.557    12004510.732 5  -1069227.181 2
  20931728.086     -753939.691 8   -589633.890 9
  20714421.245    10375510.502 9     27268.591 9
 92  5 30  4 58 30.0000000  0  4  3 21 23 17
  20508462.267     9909131.001 8    455481.051 7
  23557114.849    11926301.248 5  -1130169.527 2
  20926778.513     -779953.710 8   -609904.505 9
  20715232.333    10379791.776 9     30604.668 9
 92  5 30  4 59  0.0000000  0  4  3 21 23 17
  20513979.737     9938135.500 8    478081.957 7
  23542270.715    11848293.972 5  -1190954.353 3
  20921907.425     -805546.894 8   -629847.244 9
  20716088.990    10384299.457 9     34117.169 9
 92  5 30  4 59 30.0000000  0  4  3 21 23 17
  20519603.334     9967682.464 8    501105.570 7
  23527469.632    11770500.757 6  -1251572.346 3
  20917116.262     -830731.189 8   -649471.328 9
  20716989.327    10389025.530 9     37799.841 9
 92  5 30  5  0  0.0000000  0  4  3 21 23 17
  20525327.901     9997774.367 8    524553.808 7
  23512711.568    11692944.546 5  -1312005.694 3
  20912401.606     -855500.354 8   -668771.938 9
  20717933.373    10393977.413 9     41658.470 9
 92  5 30  5  0 30.0000000  0  4  3 21 23 17
  20531161.832    10028414.947 8    548429.578 7
  23497993.438    11615624.724 5  -1372254.816 3
  20907772.870     -879846.617 8   -687743.036 9
  20718915.403    10399160.179 9     45696.992 9
 92  5 30  5  1  0.0000000  0  4  3 21 23 17
  20537094.965    10059605.990 8    572734.278 7
  23483330.349    11538548.586 5  -1432314.079 3
  20903222.350     -903753.198 8   -706371.509 9
  20719945.100    10404566.522 9     49909.753 9
 92  5 30  5  1 30.0000000  0  4  3 21 23 17
  20543130.806    10091342.160 8    597463.763 7
  23468704.074    11461709.580 5  -1492188.532 3
  20898756.912     -927205.120 8   -724645.705 9
  20721013.171    10410185.763 9     54288.407 9
 92  5 30  5  2  0.0000000  0  4  3 21 23 17
  20549278.740    10123630.659 8    622623.629 7
  23454129.484    11385102.971 5  -1551881.938 3
  20894382.820     -950200.870 8   -742564.453 9
  20722127.739    10416031.975 9     58843.906 9
 92  5 30  5  2 30.0000000  0  4  3 21 23 17
  20555528.694    10156474.668 8    648216.362 7
  23439589.280    11308721.271 5  -1611400.075 3
  20890092.730     -972746.721 8   -760132.610 9
  20723283.619    10422098.535 9     63571.127 9
 92  5 30  5  3  0.0000000  0  4  3 21 23 17
  20561884.863    10189868.743 8    674237.727 7
  23425096.203    11232565.989 5  -1670741.757 3
  20885882.684     -994858.957 8   -777362.897 9
  20724477.123    10428378.223 9     68464.409 9
 92  5 30  5  3 30.0000000  0  4  3 21 23 17
  20568343.022    10223811.820 8    700686.889 7
  23410655.770    11156641.569 5  -1729903.529 3
  20881752.324    -1016566.349 8   -794277.708 9
  20725715.955    10434882.138 9     73532.433 9
 92  5 30  5  4  0.0000000  0  4  3 21 23 17
  20574905.959    10258303.234 8    727563.310 7
  23396253.141    11080957.918 6  -1788877.765 3
  20877696.731    -1037894.882 8   -810897.318 9
  20726995.350    10441610.215 9     78775.102 9
 92  5 30  5  4 30.0000000  0  4  3 21 23 17
  20581574.363    10293339.400 8    754864.205 7
  23381897.249    11005531.057 6  -1847651.891 3
  20873709.462    -1058840.579 8   -827218.618 9
  20728315.156    10448547.348 9     84180.668 9
 92  5 30  5  5  0.0000000  0  4  3 21 23 17
  20588343.346    10328924.430 8    782592.797 7
  23367593.162    10930365.904 6  -1906222.080 3
  20869801.247    -1079393.022 8   -843233.500 9
  20729680.231    10455702.468 9     89756.099 9
 92  5 30  5  5 30.0000000  0  4  3 21 23 17
  20595220.735    10365054.100 8    810745.783 7
  23353338.180    10855449.289 6  -1964598.579 3
  20865963.634    -1099547.160 8   -858937.993 9
  20731079.362    10463067.593 9     95495.182 9
 92  5 30  5  6  0.0000000  0  4  3 21 23 17
  20602201.523    10401737.861 8    839330.534 7
  23339129.307    10780787.539 6  -2022776.504 3
  20862212.511    -1119260.079 8   -874298.694 9
  20732519.505    10470632.083 9    101389.595 9
 92  5 30  5  6 30.0000000  0  4  3 21 23 17
  20609286.968    10438973.823 8    868345.547 6
  23324967.561    10706360.400 6  -2080771.604 3
  20858546.829    -1138524.654 8   -889310.007 9
  20733995.893    10478395.880 9    107439.337 9
 92  5 30  5  7  0.0000000  0  4  3 21 23 17
  20616475.421    10476765.908 8    897793.919 6
  23310846.976    10632143.602 6  -2138602.838 3
  20854962.930    -1157346.546 8   -903976.411 9
  20735513.113    10486367.319 9    113650.863 9
 92  5 30  5  7 30.0000000  0  4  3 21 23 17
  20623775.817    10515109.239 8    927671.848 6
  23296758.080    10558131.236 5  -2196274.747 3
  20851466.450    -1175730.013 8   -918301.150 9
  20737069.995    10494542.895 9    120021.467 9
 92  5 30  5  8  0.0000000  0  4  3 21 23 17
  20631178.802    10554007.011 8    957981.779 6
  23282716.071    10484333.163 5  -2253779.669 2
  20848049.985    -1193681.114 8   -932288.985 9
  20738663.542    10502932.835 9    126559.086 9
 92  5 30  5  8 30.0000000  0  4  3 21 23 17
  20638684.946    10593458.980 8    988723.555 6
  23268713.365    10410750.662 5  -2311116.641 2
  20844711.107    -1211230.276 8   -945963.644 9
  20740307.274    10511557.798 9    133279.857 9
 92  5 30  5  9  0.0000000  0  4  3 21 23 17
  20646298.895    10633466.446 8   1019898.213 6
  23254757.756    10337404.474 6  -2368269.435 2
  20841444.898    -1228373.448 8   -959321.929 9
  20741992.138    10520415.964 9    140182.332 9
 92  5 30  5  9 30.0000000  0  4  3 21 23 17
  20654015.732    10674024.535 8   1051501.917 6
  23240849.365    10264310.978 6  -2425225.355 2
  20838259.303    -1245120.214 8   -972371.339 9
  20743722.240    10529502.776 9    147262.976 9
 92  5 30  5 10  0.0000000  0  4  3 21 23 17
  20661836.928    10715139.319 8   1083539.377 6
  23226986.242    10191482.114 6  -2481975.091 2
  20835147.518    -1261467.741 8   -985109.652 9
  20745494.553    10538821.090 9    154524.009 9
 92  5 30  5 10 30.0000000  0  4  3 21 23 17
  20669770.036    10756814.059 8   1116013.196 6
  23213176.992    10118913.432 5  -2538522.057 3
  20832118.055    -1277398.550 8   -997523.260 9
  20747313.933    10548373.502 9    161967.465 9
 92  5 30  5 11  0.0000000  0  4  3 21 23 17
  20677804.414    10799039.699 8   1148916.302 6
  23199418.107    10046594.069 6  -2594874.726 3
  20829165.759    -1292904.965 8  -1009606.140 9
  20749168.360    10558128.844 9    169569.040 9
 92  5 30  5 11 30.0000000  0  4  3 21 23 17
  20685943.389    10841816.848 8   1182249.127 6
  23185704.401     9974517.152 6  -2651038.491 3
  20826297.794    -1307981.958 8  -1021354.429 9
  20751065.836    10568089.836 9    177330.873 9
 92  5 30  5 12  0.0000000  0  4  3 21 23 17
  20694190.230    10885149.161 8   1216014.551 6
  23172032.756     9902683.980 6  -2707012.330 4
  20823515.060    -1322613.300 8  -1032755.456 9
  20753000.037    10578260.124 9    185255.775 9
 92  5 30  5 12 30.0000000  0  4  3 21 23 17
  20702542.508    10929033.960 8   1250210.514 6
  23158408.627     9831092.443 6  -2762797.899 4
  20820809.104    -1336815.302 8  -1043821.936 9
  20754973.541    10588635.691 9    193340.646 9
 92  5 30  5 13  0.0000000  0  4  3 21 23 17
  20711001.362    10973480.269 8   1284843.971 6
  23144833.455     9759758.651 6  -2818382.612 4
  20818187.808    -1350599.630 8  -1054562.945 9
  20756989.255    10599215.680 9    201584.801 9
 92  5 30  5 13 30.0000000  0  5  3 21 23 28 17
  20719562.985    11018481.681 8   1319909.980 6
  23131306.400     9688672.511 6  -2873774.322 4
  20815640.322    -1363988.569 8  -1064995.841 9
  24810593.014    -3889969.08915  -3036086.928 2
  20759040.136    10610016.693 9    210001.178 9
 92  5 30  5 14  0.0000000  0  5  3 21 23 28 17
  20728228.396    11064036.378 8   1355407.162 6
  23117825.422     9617827.823 6  -2928977.922 4
  20813161.878    -1377005.366 8  -1075138.785 9
  24791922.389    -3988096.387 5  -3112549.657 2
  20761143.180    10621044.765 9    218594.492 9
 92  5 30  5 14 30.0000000  0  5  3 21 23 28 17
  20737009.917    11110150.270 8   1391340.058 6
  23104387.226     9547212.938 6  -2984002.441 4
  20810756.463    -1389655.290 8  -1084995.863 9
  24773268.613    -4086128.358 5  -3188938.092 2
  20763284.927    10632304.693 9    227368.476 9
 92  5 30  5 15  0.0000000  0  5  3 21 23 28 17
  20745889.530    11156823.934 8   1427709.118 6
  23090992.948     9476822.723 6  -3038851.903 4
  20808420.660    -1401924.087 8  -1094555.958 9
  24754627.938    -4184048.068 5  -3265239.075 2
  20765472.692    10643800.902 9    236326.577 9
 92  5 30  5 15 30.0000000  0  5  3 21 23 28 17
  20754877.727    11204056.202 8   1464513.472 6
  23077641.751     9406654.308 6  -3093528.530 4
  20806164.332    -1413799.558 8  -1103809.541 9
  24736022.608    -4281838.833 5  -3341439.559 2
  20767705.876    10655545.372 9    245478.125 9
 92  5 30  5 16  0.0000000  0  5  3 21 23 28 17
  20763970.163    11251846.247 8   1501752.472 6
  23064338.581     9336709.836 6  -3148030.658 3
  20803978.006    -1425272.157 8  -1112749.237 9
  24717437.784    -4379492.731 5  -3417533.420 2
  20769982.470    10667512.358 9    254803.062 9
 92  5 30  5 16 30.0000000  0  5  3 21 23 28 17
  20773170.343    11300193.201 8   1539425.407 6
  23051062.571     9266997.477 6  -3202351.971 3
  20801871.184    -1436328.512 8  -1121364.565 9
  24698870.678    -4477024.287 5  -3493531.905 2
  20772301.905    10679688.743 9    264291.159 9
 92  5 30  5 17  0.0000000  0  5  3 21 23 28 17
  20782476.531    11349097.642 8   1577532.767 6
  23037845.741     9197543.643 6  -3256471.763 3
  20799847.525    -1446970.644 8  -1129657.102 9
  24680339.756    -4574443.953 5  -3569443.208 2
  20774660.252    10692078.754 9    273945.743 9
 92  5 30  5 17 30.0000000  0  5  3 21 23 28 17
  20791890.614    11398561.552 8   1616076.032 6
  23024683.893     9128355.338 6  -3310384.660 3
  20797903.971    -1457208.099 8  -1137634.323 9
  24661816.600    -4671769.781 5  -3645281.401 2
  20777057.063    10704677.117 9    283762.644 9
 92  5 30  5 18  0.0000000  0  5  3 21 23 28 17
  20801407.315    11448585.886 8   1655056.034 6
  23011560.688     9059433.852 6  -3364089.632 3
  20796027.720    -1467049.458 8  -1145302.900 9
  24643309.602    -4769014.666 5  -3721056.567 2
  20779494.765    10717478.193 9    293737.510 9
 92  5 30  5 18 30.0000000  0  5  3 21 23 28 17
  20811037.548    11499169.957 8   1694472.190 6
  22998501.609     8990786.887 6  -3417580.750 3
  20794226.956    -1476502.710 8  -1152669.037 9
  24624820.412    -4866189.571 5  -3796777.107 2
  20781971.501    10730493.375 9    303879.232 9
 92  5 30  5 19  0.0000000  0  5  3 21 23 28 17
  20820767.852    11550312.159 8   1734323.235 6
  22985491.096     8922408.414 6  -3470862.634 3
  20792501.591    -1485571.346 8  -1159735.517 9
  24606342.643    -4963290.458 5  -3872440.045 2
  20784485.650    10743722.288 9    314187.486 9
 92  5 30  5 19 30.0000000  0  5  3 21 23 28 17
  20830604.463    11602008.689 8   1774606.232 6
  22972520.335     8854283.136 6  -3523947.189 3
  20790854.231    -1494246.323 8  -1166495.233 9
  24587882.293    -5060318.043 5  -3948045.814 2
  20787043.629    10757159.057 9    324657.704 9
 92  5 30  5 20  0.0000000  0  5  3 21 23 28 17
  20840546.930    11654261.595 8   1815322.772 6
  22959611.362     8786421.060 6  -3576826.663 3
  20789277.323    -1502515.349 8  -1172938.602 9
  24569430.487    -5157250.525 5  -4023577.490 2
  20789643.429    10770816.171 9    335299.618 9
 92  5 30  5 20 30.0000000  0  5  3 21 23 28 17
  20850598.491    11707075.016 8   1856476.088 6
  22946749.636     8718827.208 6  -3629497.168 3
  20787785.016    -1510366.630 8  -1179056.449 9
  24551012.887    -5254063.096 5  -4099015.715 2
  20792283.642    10784699.079 9    346117.494 9
 92  5 30  5 21  0.0000000  0  5  3 21 23 28 17
  20860755.430    11760451.289 8   1898067.958 6
  22933940.373     8651496.331 6  -3681962.745 3
  20786372.274    -1517788.242 8  -1184839.502 9
  24532619.241    -5350725.056 5  -4174336.661 2
  20794970.322    10798816.047 9    357117.731 9
 92  5 30  5 21 30.0000000  0  5  3 21 23 28 17
  20871019.964    11814383.292 8   1940092.905 6
  22921173.802     8584428.087 6  -3734223.625 4
  20785037.628    -1524793.958 8  -1190298.492 9
  24514249.069    -5447238.758 5  -4249542.114 2
  20797703.499    10813162.194 9    368296.559 9
 92  5 30  5 22  0.0000000  0  5  3 21 23 28 17
  20881388.466    11868873.988 8   1982553.181 6
  22908463.261     8517619.599 6  -3786282.126 4
  20783785.814    -1531391.617 8  -1195439.485 9
  24495910.644    -5543598.436 5  -4324627.431 2
  20800472.652    10827742.403 9    379657.775 9
 92  5 30  5 22 30.0000000  0  5  3 21 23 28 17
  20891861.355    11923918.001 8   2025444.614 6
  22895794.182     8451054.705 6  -3838150.812 4
  20782605.711    -1537592.443 8  -1200271.274 9
  24477605.616    -5639821.834 5  -4399606.535 2
  20803290.432    10842546.241 9    391193.248 9
 92  5 30  5 23  0.0000000  0  5  3 21 23 28 17
  20902442.260    11979522.373 8   2068772.661 6
  22883179.095     8384751.871 6  -3889815.319 4
  20781499.597    -1543395.942 8  -1204793.453 9
  24459312.760    -5735913.188 5  -4474482.787 2
  20806152.790    10857581.062 9    402908.696 9
 92  5 30  5 23 30.0000000  0  5  3 21 23 28 17
  20913130.401    12035685.151 8   2112535.874 6
  22870612.634     8318708.581 6  -3941277.557 4
  20780468.881    -1548816.083 8  -1209016.924 9
  24441051.682    -5831887.854 5  -4549268.103 2
  20809054.122    10872835.593 9    414795.351 9
 92  5 30  5 24  0.0000000  0  5  3 21 23 28 17
  20923921.461    12092404.148 8   2156732.468 6
  22858091.503     8252923.124 6  -3992538.889 4
  20779512.213    -1553844.693 8  -1212935.286 9
  24422820.763    -5927737.047 5  -4623955.659 2
  20811998.743    10888305.069 9    426849.491 9
 92  5 30  5 24 30.0000000  0  5  3 21 23 28 17
  20934821.495    12149679.869 8   2201362.876 6
  22845624.513     8187409.609 6  -4043588.370 3
  20778630.314    -1558484.051 8  -1216550.329 9
  24404607.532    -6023444.652 6  -4698532.841 2
  20814983.357    10903983.083 9    439066.144 9
 92  5 30  5 25  0.0000000  0  5  3 21 23 28 17
  20945829.304    12207511.250 8   2246426.287 6
  22833205.491     8122156.367 6  -4094435.019 3
  20777816.947    -1562740.948 8  -1219867.383 9
  24386423.770    -6118998.122 5  -4772989.974 2
  20818004.545    10919868.853 9    451444.657 9
 92  5 30  5 25 30.0000000  0  5  3 21 23 28 17
  20956935.086    12265894.375 8   2291919.612 6
  22820838.182     8057143.671 6  -4145094.177 4
  20777082.395    -1566620.008 8  -1222890.007 9
  24368269.088    -6214391.090 5  -4847322.043 2
  20821067.285    10935954.273 9    463978.764 9
 92  5 30  5 26  0.0000000  0  5  3 21 23 28 17
  20968153.769    12324834.288 8   2337846.801 6
  22808512.036     7992378.793 6  -4195560.260 4
  20776414.368    -1570112.099 8  -1225611.105 9
  24350149.692    -6309622.339 6  -4921528.127 2
  20824167.229    10952251.864 9    476678.189 9
 92  5 30  5 26 30.0000000  0  5  3 21 23 28 17
  20979476.990    12384330.213 8   2384207.238 6
  22796232.267     7927847.355 6  -4245844.464 4
  20775821.018    -1573225.878 8  -1228037.414 9
  24332054.639    -6404713.246 6  -4995624.815 2
  20827311.752    10968765.568 9    489546.020 9
 92  5 30  5 27  0.0000000  0  5  3 21 23 28 17
  20990902.680    12444380.486 8   2430999.655 6
  22783995.908     7863543.828 6  -4295951.052 4
  20775304.656    -1575951.461 8  -1230161.203 9
  24313977.753    -6499673.877 5  -5069619.988 2
  20830494.709    10985495.723 9    502582.508 9
 92  5 30  5 27 30.0000000  0  5  3 21 23 28 17
  21002432.459    12504981.903 8   2478221.538 6
  22771807.186     7799489.198 6  -4345863.700 4
  20774862.642    -1578278.451 8  -1231974.441 9
  24295931.387    -6594512.362 5  -5143519.991 2
  20833718.887    11002445.663 9    515790.264 9
 92  5 30  5 28  0.0000000  0  5  3 21 23 28 17
  21014072.500    12566138.826 8   2525876.265 6
  22759663.913     7735694.180 6  -4395574.031 4
  20774491.589    -1580199.136 8  -1233471.033 9
  24277908.464    -6689218.247 6  -5217316.680 2
  20836988.993    11019624.493 9    529176.384 9
 92  5 30  5 28 30.0000000  0  5  3 21 23 28 17
  21025818.129    12627847.939 8   2573961.257 6
  22747571.124     7672156.341 6  -4445083.977 4
  20774209.004    -1581717.299 8  -1234654.009 9
  24259913.182    -6783781.899 6  -5291002.581 2
  20840299.961    11037031.464 9    542740.258 9
 92  5 30  5 29  0.0000000  0  5  3 21 23 28 17
  21037664.248    12690113.383 8   2622479.780 6
  22735534.367     7608898.134 6  -4494376.038 4
  20773995.912    -1582832.870 8  -1235523.285 9
  24241953.155    -6878173.041 6  -5364554.029 2
  20843658.386    11054681.383 9    556493.449 9
 92  5 30  5 29 30.0000000  0  5  3 21 23 28 17
  21049622.550    12752942.890 8   2671437.828 6
  22723553.851     7545926.711 6  -4543444.613 4
  20773859.446    -1583557.967 8  -1236088.285 9
  24224027.815    -6972377.760 6  -5437960.184 2
  20847066.156    11072589.788 9    570448.049 9
 92  5 30  5 30  0.0000000  0  5  3 21 23 28 17
  21061683.560    12816333.272 8   2720832.900 6
  22711624.270     7483231.050 6  -4592298.318 4
  20773792.653    -1583907.689 8  -1236360.758 9
  24206138.449    -7066398.398 6  -5511222.927 2
  20850524.412    11090747.008 9    584596.553 9
 92  5 30  5 30 30.0000000  0  5  3 21 23 28 17
  21073850.517    12880275.205 8   2770657.767 6
  22699747.752     7420807.603 6  -4640939.933 4
  20773796.400    -1583895.218 8  -1236351.013 9
  24188272.318    -7160255.469 6  -5584358.213 2
  20854022.391    11109147.914 9    598934.917 9
 92  5 30  5 31  0.0000000  0  5  3 21 23 28 17
  21086125.549    12944773.763 8   2820916.361 6
  22687920.430     7358661.868 6  -4689365.136 4
  20773866.072    -1583523.447 8  -1236061.301 9
  24170445.399    -7253947.122 5  -5657364.712 2
  20857572.443    11127797.197 9    613466.834 9
 92  5 30  5 31 30.0000000  0  5  3 21 23 28 17
  21098500.472    13009822.741 8   2871603.856 6
  22676143.922     7296785.464 6  -4737580.431 4
  20773999.809    -1582797.935 8  -1235495.967 9
  24152645.851    -7347494.774 5  -5730258.864 2
  20861164.976    11146673.703 9    628175.815 9
 92  5 30  5 32  0.0000000  0  5  3 21 23 28 17
  21110986.888    13075419.229 8   2922717.990 6
  22664421.138     7235175.751 6  -4785587.918 4
  20774207.356    -1581705.384 8  -1234644.605 9
  24134865.430    -7440899.862 6  -5803041.928 2
  20864799.660    11165769.727 9    643055.835 9
 92  5 30  5 32 30.0000000  0  5  3 21 23 28 17
  21123575.263    13141569.123 8   2974263.350 6
  22652746.830     7173836.371 6  -4833384.789 4
  20774491.859    -1580238.988 8  -1233501.945 9
  24117121.614    -7534140.230 5  -5875696.668 2
  20868477.634    11185100.398 9    658118.702 9
 92  5 30  5 33  0.0000000  0  5  3 21 23 28 17
  21136266.617    13208269.559 8   3026237.689 6
  22641124.775     7112762.854 6  -4880974.537 4
  20774839.678    -1578397.548 8  -1232067.048 9
  24099414.822    -7627202.487 6  -5948212.630 2
  20872201.416    11204654.963 9    673356.035 9
 92  5 30  5 33 30.0000000  0  5  3 21 23 28 17
  21149064.367    13275523.148 8   3078643.057 6
  22629558.603     7051967.928 6  -4928347.132 4
  20775263.524    -1576159.962 8  -1230323.453 9
  24081743.736    -7720073.811 6  -6020579.857 2
  20875960.213    11224430.796 9    688765.779 9
 92  5 30  5 34  0.0000000  0  5  3 21 23 28 17
  21161964.137    13343323.411 8   3131474.402 6
  22618040.426     6991435.111 6  -4975515.504 4
  20775766.696    -1573522.471 8  -1228268.245 9
  24064110.033    -7812742.437 6  -6092789.074 2
  20879767.788    11244430.680 9    704350.113 9
 92  5 30  5 34 30.0000000  0  5  3 21 23 28 17
  21174974.021    13411675.246 8   3184735.553 6
  22606570.337     6931175.719 7  -5022470.834 4
  20776341.428    -1570483.728 8  -1225900.379 9
  24046519.561    -7905206.088 6  -6164838.592 2
  20883619.701    11264665.796 9    720117.738 9
 92  5 30  5 35  0.0000000  0  5  3 21 23 28 17
  21188083.735    13480576.001 8   3238424.453 5
  22595156.848     6871195.712 6  -5069208.469 4
  20776997.284    -1567042.602 8  -1223218.960 9
  24028955.950    -7997474.918 6  -6236736.276 2
  20887514.065    11285121.935 9    736057.610 9
 92  5 30  5 35 30.0000000  0  5  3 21 23 28 17
  21201302.634    13550028.789 8   3292543.459 5
  22583795.314     6811498.593 6  -5115725.637 4
  20777730.696    -1563199.264 8  -1220224.141 9
  24011437.847    -8089543.855 6  -6308478.241 2
  20891444.794    11305801.627 9    752171.660 9
 92  5 30  5 36  0.0000000  0  5  3 21 23 28 17
  21214620.584    13620033.791 8   3347092.805 5
  22572490.200     6752070.950 6  -5162032.817 5
  20778540.046    -1558974.154 8  -1216931.832 9
  23993951.133    -8181418.064 6  -6380068.468 2
  20895424.748    11326705.006 9    768460.027 9
 92  5 30  5 36 30.0000000  0  5  3 21 23 28 17
  21228048.168    13690586.792 7   3402069.157 5
  22561230.025     6692923.161 6  -5208121.953 5
  20779412.322    -1554386.184 8  -1213356.779 9
  23976502.733    -8273110.619 6  -6451517.117 2
  20899441.877    11347820.711 9    784913.826 9
 92  5 30  5 37  0.0000000  0  5  3 21 23 28 17
  21241576.932    13761686.041 8   3457471.126 5
  22550027.231     6634050.404 6  -5253996.787 5
  20780348.004    -1549443.811 8  -1209505.582 9
  23959094.114    -8364618.087 6  -6522821.523 2
  20903502.326    11369148.401 9    801532.827 9
 92  5 30  5 37 30.0000000  0  5  3 21 23 28 17
  21255211.313    13833325.494 8   3513294.057 5
  22538873.513     6575437.612 6  -5299669.041 5
  20781354.857    -1544158.522 8  -1205387.137 9
  23941712.267    -8455940.200 6  -6593981.486 2
  20907601.898    11390701.358 9    818327.349 9
 92  5 30  5 38  0.0000000  0  5  3 21 23 28 17
  21268943.817    13905514.837 7   3569545.494 5
  22527773.817     6517098.937 6  -5345127.684 5
  20782427.545    -1538524.133 8  -1200996.676 9
  23924375.929    -8547060.293 6  -6664984.091 2
  20911753.304    11412506.652 9    835318.497 9
 92  5 30  5 38 30.0000000  0  5  3 21 23 28 17
  21282787.303    13978248.735 7   3626221.235 5
  22516726.824     6459034.298 7  -5390372.835 4
  20783568.885    -1532533.962 8  -1196329.000 9
  23907072.598    -8637964.503 6  -6735818.499 2
  20915950.399    11434573.539 9    852513.487 9
 92  5 30  5 39  0.0000000  0  5  3 21 23 28 17
  21296731.609    14051528.540 8   3683322.331 5
  22505729.688     6401236.036 7  -5435410.391 4
  20784774.350    -1526174.985 8  -1191373.936 9
  23889818.763    -8728632.545 6  -6806468.815 2
  20920203.974    11456913.784 9    869921.484 9
 92  5 30  5 39 30.0000000  0  5  3 21 23 28 17
  21310779.824    14125351.081 7   3740846.395 5
  22494776.650     6343701.144 7  -5480242.714 4
  20786056.832    -1519444.787 9  -1186129.589 9
  23872612.204    -8819053.249 6  -6876926.389 3
  20924504.077    11479521.360 9    887537.782 9
 92  5 30  5 40  0.0000000  0  5  3 21 23 28 17
  21324929.908    14199711.524 7   3798789.563 5
  22483880.783     6286429.858 7  -5524869.618 5
  20787409.016    -1512335.846 8  -1180590.140 9
  23855453.253    -8909232.772 6  -6947196.042 3
  20928855.175    11502386.387 9    905354.693 9
 92  5 30  5 40 30.0000000  0  5  3 21 23 28 17
  21339187.408    14274608.124 7   3857150.521 5
  22473029.885     6229420.349 7  -5569292.580 4
  20788836.478    -1504840.182 8  -1174749.339 9
  23838339.451    -8999180.444 6  -7017285.100 2
  20933252.441    11525501.440 9    923366.426 9
 92  5 30  5 41  0.0000000  0  5  3 21 23 28 17
  21353538.353    14350047.185 7   3915934.169 5
  22462233.819     6172687.706 7  -5613499.787 4
  20790334.991    -1496960.627 8  -1168609.427 9
  23821261.354    -9088903.538 6  -7087199.128 2
  20937695.485    11548857.288 9    941565.788 9
 92  5 30  5 41 30.0000000  0  5  3 21 23 28 17
  21367999.262    14426023.803 7   3975136.723 5
  22451496.782     6116241.579 7  -5657483.713 5
  20791907.012    -1488707.218 8  -1162178.166 9
  23804231.104    -9178412.660 6  -7156946.384 3
  20942183.828    11572430.946 9    959934.903 9
 92  5 30  5 42  0.0000000  0  5  3 21 23 28 17
  21382555.805    14502536.969 7   4034757.350 5
  22440808.072     6060090.794 7  -5701237.518 5
  20793547.986    -1480078.621 8  -1155454.564 9
  23787236.589    -9267709.166 6  -7226528.001 3
  20946708.146    11596215.614 9    978468.403 9
 92  5 30  5 42 30.0000000  0  5  3 21 23 28 17
  21397216.705    14579582.010 7   4094792.387 5
  22430176.982     6004232.988 7  -5744763.050 5
  20795257.553    -1471097.042 9  -1148455.909 9
  23770289.891    -9356775.575 6  -7295930.349 3
  20951273.355    11620192.268 9    997151.502 9
 92  5 30  5 43  0.0000000  0  5  3 21 23 28 17
  21411981.903    14657160.059 7   4155242.797 5
  22419605.430     5948675.929 7  -5788054.212 5
  20797031.425    -1461764.488 9  -1141183.790 9
  23753386.243    -9445596.418 6  -7365141.336 2
  20955868.724    11644352.428 8   1015977.605 9
 92  5 30  5 43 30.0000000  0  5  3 21 23 28 17
  21426847.472    14735273.164 7   4216110.157 5
  22409085.923     5893416.256 6  -5831113.632 5
  20798878.596    -1452062.879 8  -1133624.066 9
  23736529.902    -9534159.898 6  -7434151.753 3
  20960505.044    11668713.587 8   1034960.340 9
 92  5 30  5 44  0.0000000  0  5  3 21 23 28 17
  21441812.962    14813922.150 7   4277395.049 5
  22398628.472     5838442.539 7  -5873950.235 5
  20800794.150    -1441997.745 8  -1125781.090 9
  23719728.963    -9622462.038 6  -7502958.505 3
  20965185.254    11693304.230 9   1054121.886 9
 92  5 30  5 44 30.0000000  0  5  3 21 23 28 17
  21456881.460    14893106.795 7   4339097.328 5
  22388219.918     5783743.460 7  -5916572.864 5
  20802777.397    -1431579.612 9  -1117663.052 9
  23702978.839    -9710509.225 6  -7571566.676 3
  20969913.551    11718143.102 8   1073476.845 9
 92  5 30  5 45  0.0010000  0  5  3 21 23 28 17
  21472049.909    14972819.395 7   4401211.025 5
  22377861.219     5729308.140 7  -5958989.994 5
  20804827.917    -1420815.935 8  -1109275.762 9
  23686260.613    -9798340.651 6  -7640006.692 3
  20974687.596    11743245.836 8   1093037.429 9
 92  5 30  5 45 30.0010000  0  5  3 21 23 28 17
  21487315.521    15053055.885 7   4463732.937 5
  22367554.085     5675129.721 7  -6001206.863 5
  20806936.807    -1409718.924 8  -1100628.717 9
  23669590.623    -9885941.636 6  -7708267.120 3
  20979520.310    11768635.703 8   1112821.745 9
 92  5 30  5 46  0.0010000  0  5  3 21 23 28 17
  21502688.578    15133819.304 7   4526665.446 5
  22357289.790     5621200.554 7  -6043229.521 5
  20809109.523    -1398303.812 8  -1091733.807 9
  23652962.755    -9973310.073 6  -7776346.331 3
  20984409.326    11794310.032 9   1132827.721 9
 92  5 30  5 46 30.0010000  0  5  3 21 23 28 17
  21518154.242    15215109.798 7   4590008.667 5
  22347073.553     5567523.401 7  -6085055.850 5
  20811341.328    -1386559.329 8  -1082582.258 9
  23636383.872   -10060439.886 6  -7844239.621 3
  20989345.708    11820250.187 9   1153040.827 9
 92  5 30  5 47  0.0010000  0  5  3 21 23 28 17
  21533722.044    15296922.087 7   4653758.480 5
  22336909.869     5514108.662 7  -6126677.690 5
  20813643.165    -1374480.553 8  -1073170.229 9
  23619852.626   -10147314.535 6  -7911934.124 3
  20994327.599    11846437.761 9   1173446.725 9
 92  5 30  5 47 30.0010000  0  5  3 21 23 28 17
  21549390.248    15379257.701 7   4717916.070 5
  22326794.122     5460954.687 7  -6168096.310 5
  20816008.527    -1362058.579 8  -1063490.741 9
  23603370.996   -10233914.876 6  -7979414.841 3
  20999352.481    11872864.433 9   1194038.951 9
 92  5 30  5 48  0.0010000  0  5  3 21 23 28 17
  21565158.821    15462119.464 7   4782483.616 5
  22316733.747     5408074.519 7  -6209301.572 5
  20818437.745    -1349279.438 9  -1053532.952 9
  23586948.545   -10320251.152 6  -8046689.792 3
  21004424.040    11899508.223 8   1214800.350 9
 92  5 30  5 48 30.0010000  0  5  3 21 23 28 17
  21581028.545    15545506.898 7   4847460.827 5
  22306725.955     5355481.122 7  -6250283.431 5
  20820936.875    -1336150.967 9  -1043302.990 9
  23570563.089   -10406321.696 6  -8113757.672 3
  21009534.572    11926365.679 8   1235728.227 9
 92  5 30  5 49  0.0010000  0  5  3 21 23 28 17
  21596998.759    15629419.931 7   4912847.583 5
  22296772.396     5303185.091 7  -6291033.572 5
  20823498.452    -1322685.680 8  -1032810.547 9
  23554237.591   -10492120.221 6  -8180613.630 3
  21014689.053    11953449.288 8   1256832.357 9
 92  5 30  5 49 30.0010000  0  5  3 21 23 28 17
  21613063.198    15713851.675 7   4978638.507 5
  22286874.808     5251173.634 7  -6331561.923 5
  20826121.696    -1308892.620 8  -1022062.686 9
  23537962.218   -10577657.793 6  -8247266.238 3
  21019887.605    11980761.139 8   1278114.315 9
 92  5 30  5 50  0.0010000  0  5  3 21 23 28 17
  21629228.007    15798798.076 7   5044830.492 5
  22277033.700     5199454.501 7  -6371862.490 5
  20828811.494    -1294780.279 8  -1011066.056 9
  23521733.013   -10662924.884 6  -8313708.026 3
  21025125.638    12008304.549 8   1299576.712 9
 92  5 30  5 50 30.0010000  0  5  3 21 23 28 17
  21645489.499    15884262.488 7   5111426.089 5
  22267249.794     5148041.227 7  -6411924.769 5
  20831559.302    -1280338.083 8   -999812.419 9
  23505563.437   -10747894.004 6  -8379917.649 3
  21030420.573    12036108.578 8   1321242.184 9
 92  5 30  5 51  0.0010000  0  5  3 21 23 28 17
  21661854.001    15970241.543 7   5178422.724 5
  22257525.606     5096929.896 7  -6451751.719 5
  20834370.875    -1265543.328 8   -988284.003 9
  23489453.430   -10832565.262 6  -8445895.204 3
  21035759.787    12064176.268 8   1343113.135 9
 92  5 30  5 51 30.0010000  0  5  3 21 23 28 17
  21678311.557    16056728.103 7   5245814.805 4
  22247850.434     5046102.480 7  -6491357.446 5
  20837260.245    -1250382.519 9   -976470.368 9
  23473391.629   -10916947.194 6  -8511647.293 3
  21041148.496    12092498.295 9   1365182.247 9
 92  5 30  5 52  0.0010000  0  5  3 21 23 28 17
  21694868.975    16143724.997 7   5313604.569 5
  22238233.301     4995552.979 7  -6530746.595 5
  20840211.792    -1234855.918 9   -964371.703 9
  23457392.785   -11001033.691 6  -8577169.158 3
  21046586.821    12121072.951 9   1387448.231 9
 92  5 30  5 52 30.0010000  0  5  3 21 23 28 17
  21711517.529    16231233.659 7   5381793.106 5
  22228661.828     4945265.246 7  -6569931.848 5
  20843239.096    -1218952.026 9   -951979.060 9
  23441446.674   -11084833.488 6  -8642467.644 3
  21052071.015    12149896.435 9   1409908.080 9
 92  5 30  5 53  0.0010000  0  5  3 21 23 28 17
  21728266.754    16319254.137 7   5450380.430 5
  22219139.070     4895225.685 7  -6608923.698 5
  20846336.581    -1202683.968 9   -939302.634 9
  23425558.843   -11168349.789 6  -8707545.231 3
  21057602.635    12178965.934 9   1432559.651 9
 92  5 30  5 53 30.0010000  0  5  3 21 23 28 17
  21745115.270    16407778.023 7   5519360.054 5
  22209661.581     4845421.305 7  -6647732.243 5
  20849490.008    -1186085.290 9   -926368.572 9
  23409717.900   -11251585.869 6  -8772404.420 3
  21063184.321    12208277.678 8   1455399.984 9
 92  5 30  5 54  0.0010000  0  5  3 21 23 28 17
  21762056.872    16496808.627 7   5588734.517 5
  22200230.770     4795865.570 7  -6686347.092 5
  20852711.788    -1169171.025 9   -913188.635 9
  23393932.058   -11334535.738 6  -8837040.636 3
  21068808.727    12237838.974 8   1478434.747 9
 92  5 30  5 54 30.0010000  0  5  3 21 23 28 17
  21779094.497    16586340.102 7   5658499.269 5
  22190854.371     4746579.101 7  -6724752.104 5
  20855991.458    -1151941.281 9   -899762.851 9
  23378197.241   -11417205.976 6  -8901458.952 3
  21074480.351    12267652.023 8   1501665.701 9
 92  5 30  5 55  0.0010000  0  5  3 21 23 28 17
  21796226.346    16676380.153 7   5728660.304 4
  22181532.804     4697596.172 7  -6762920.563 6
  20859330.096    -1134401.158 9   -886095.196 9
  23362526.579   -11499579.691 6  -8965646.217 3
  21080201.740    12297721.065 8   1525096.128 9
 92  5 30  5 55 30.0010000  0  5  3 21 23 28 17
  21813456.828    16766923.119 7   5799213.258 4
  22172268.978     4648922.922 7  -6800847.753 6
  20862724.077    -1116552.198 8   -872186.916 9
  23346907.093   -11581656.650 6  -9029602.247 3
  21085967.289    12328029.487 8   1548713.079 9
 92  5 30  5 56  0.0010000  0  5  3 21 23 28 17
  21830777.397    16857963.595 7   5870153.858 4
  22163068.617     4600566.220 7  -6838528.282 5
  20866182.333    -1098392.194 8   -858036.244 9
  23331341.928   -11663429.740 6  -9093321.458 3
  21091778.675    12358572.680 8   1572512.965 9
 92  5 30  5 56 30.0010000  0  5  3 21 23 28 17
  21848203.314    16949506.861 7   5941486.209 4
  22153930.223     4552532.317 7  -6875957.257 6
  20869696.500    -1079919.113 9   -843641.627 9
  23315841.759   -11744874.944 6  -9156785.234 3
  21097637.999    12389355.254 8   1596499.404 9
 92  5 30  5 57  0.0010000  0  5  3 21 23 28 17
  21865713.891    17041548.407 7   6013206.853 4
  22144842.914     4504788.839 7  -6913159.891 6
  20873271.555    -1061137.653 9   -829006.708 9
  23300414.499   -11825984.645 7  -9219987.567 3
  21103542.741    12420378.339 8   1620673.232 9
 92  5 30  5 57 30.0010000  0  5  3 21 23 28 17
  21883323.460    17134083.567 7   6085312.178 4
  22135808.099     4457309.345 7  -6950156.857 6
  20876905.759    -1042036.649 8   -814122.806 9
  23285040.602   -11906756.667 7  -9282926.749 3
  21109495.480    12451660.156 9   1645048.674 9
 92  5 30  5 58  0.0010000  0  5  3 21 23 28 17
  21901029.173    17227113.261 7   6157802.821 4
  22126823.769     4410093.588 7  -6986948.329 6
  20880602.680    -1022602.187 8   -798979.081 9
  23269734.698   -11987193.356 6  -9345604.629 3
  21115501.373    12483212.830 9   1669635.168 9
 92  5 30  5 58 30.0010000  0  5  3 21 23 28 17
  21918823.264    17320626.510 7   6230670.208 4
  22117882.848     4363117.743 7  -7023552.866 6
  20884365.195    -1002824.422 9   -783567.826 9
  23254488.543   -12067312.105 7  -9408034.784 3
  21121555.232    12515027.388 8   1694425.734 9
 92  5 30  5 59  0.0010000  0  5  3 21 23 28 17
  21936709.782    17414627.787 7   6303917.952 4
  22108996.100     4316395.118 7  -7059960.047 6
  20888201.459     -982681.159 8   -767871.778 9
  23239304.804   -12147118.204 6  -9470221.360 3
  21127660.295    12547112.317 8   1719426.966 9
 92  5 30  5 59 30.0010000  0  5  3 21 23 28 17
  21954690.644    17509120.865 7   6377548.900 4
  22100155.371     4269959.399 7  -7096143.692 6
  20892101.099     -962177.629 8   -751894.983 9
  23224177.786   -12226600.200 6  -9532155.310 3
  21133812.456    12579460.191 8   1744633.101 9
 92  5 30  6  0  0.0010000  0  5  3 21 23 28 17
  21972763.153    17604098.308 7   6451557.242 4
  22091377.448     4223830.204 7  -7132088.520 6
  20896068.733     -941332.856 9   -735652.306 9
  23209115.464   -12305762.498 6  -9593840.166 3
  21140017.261    12612046.230 8   1770024.826 9
 92  5 30  6  0 30.0010000  0  5  3 21 23 28 17
  21990932.644    17699563.701 7   6525945.827 4
  22082660.682     4178014.558 7  -7167789.000 6
  20900095.425     -920159.942 8   -719153.926 9
  23194109.322   -12384597.128 6  -9655269.753 3
  21146262.507    12644876.951 8   1795607.194 9
 92  5 30  6  1  0.0010000  0  5  3 21 23 28 17
  22009194.112    17795514.720 7   6600712.861 4
  22073999.948     4132521.241 7  -7203238.266 6
  20904184.654     -898687.179 9   -702421.896 9
  23179170.274   -12463104.928 6  -9716444.623 4
  21152555.660    12677939.261 8   1821370.039 9
 92  5 30  6  1 30.0010000  0  5  3 21 23 28 17
  22027542.340    17891948.330 7   6675855.910 4
  22065406.037     4087334.576 7  -7238448.611 6
  20908319.602     -876935.709 9   -685472.683 9
  23164296.461   -12541281.599 7  -9777361.427 4
  21158893.543    12711238.216 8   1847317.266 9
 92  5 30  6  2  0.0010000  0  5  3 21 23 28 17
  22045989.139    17988863.021 7   6751373.771 4
  22056860.034     4042430.140 7  -7273439.066 6
  20912516.186     -854902.810 9   -668304.211 9
  23149479.879   -12619136.227 7  -9838027.384 3
  21165276.334    12744790.295 8   1873461.739 9
 92  5 30  6  2 30.0010000  0  5  3 21 23 28 17
  22064516.883    18086257.815 7   6827265.820 4
  22048363.106     3997784.743 7  -7308227.620 6
  20916760.768     -832591.777 9   -650918.967 9
  23134726.852   -12696655.579 6  -9898432.053 4
  21171714.677    12778610.336 8   1899815.016 9
 92  5 30  6  3  0.0010000  0  5  3 21 23 28 17
  22083142.598    18184133.334 7   6903532.424 4
  22039916.933     3953402.774 7  -7342810.924 6
  20921060.541     -809991.390 9   -633308.266 9
  23120047.154   -12773820.191 7  -9958560.260 4
  21178202.006    12812703.518 8   1926381.137 9
 92  5 30  6  3 30.0010000  0  5  3 21 23 28 17
  22101856.153    18282479.269 7   6980165.592 4
  22031519.896     3909281.748 7  -7377190.927 6
  20925418.354     -787093.487 9   -615465.762 9
  23105431.613   -12850622.443 7 -10018406.184 4
  21184739.520    12847078.746 8   1953167.015 9
 92  5 30  6  4  0.0010000  0  5  3 21 23 28 17
  22120663.783    18381304.820 7   7057172.447 4
  22023178.231     3865440.689 7  -7411352.755 6
  20929836.875     -763869.922 9   -597369.461 9
  23090887.811   -12927041.891 6 -10077953.774 4
  21191338.881    12881738.835 8   1980174.892 9
 92  5 30  6  4 30.0010000  0  5  3 21 23 28 17
  22139556.284    18480599.558 7   7134544.957 4
  22014890.109     3821882.500 7  -7445294.156 6
  20934321.471     -740322.558 9   -579020.872 9
  23076412.992   -13003086.043 6 -10137208.901 4
  21197980.154    12916661.571 8   2007387.399 9
 92  5 30  6  5  0.0010000  0  5  3 21 23 28 17
  22158541.901    18580363.821 7   7212283.317 4
  22006658.317     3778627.600 7  -7478999.224 6
  20938862.517     -716446.922 9   -560416.467 9
  23062014.050   -13078768.557 7 -10196182.274 4
  21204676.228    12951839.797 8   2034798.996 9
 92  5 30  6  5 30.0010000  0  5  3 21 23 28 17
  22177617.515    18680595.978 7   7290386.261 4
  21998481.628     3735665.402 7  -7512476.238 6
  20943464.871     -692253.245 9   -541564.257 9
  23047683.551   -13154093.758 6 -10254877.209 4
  21211421.918    12987273.766 8   2062409.881 9
 92  5 30  6  6  0.0010000  0  5  3 21 23 28 17
  22196777.431    18781298.295 7   7368855.555 4
  21990362.409     3692988.266 7  -7545731.138 6
  20948130.121     -667749.007 9   -522470.033 9
  23033413.789   -13229061.452 6 -10313293.556 4
  21218209.549    13022962.202 8   2090219.049 9
 92  5 30  6  6 30.0010000  0  5  3 21 23 28 17
  22216031.961    18882462.314 7   7447684.620 4
  21982294.604     3650596.167 7  -7578763.912 6
  20952848.735     -642954.061 9   -503149.287 9
  23019217.897   -13303678.376 7 -10371436.567 4
  21225047.935    13058901.946 8   2118224.044 9
 92  5 30  6  7  0.0010000  0  5  3 21 23 28 17
  22235366.896    18984082.845 7   7526869.397 4
  21974282.831     3608483.343 7  -7611579.056 6
  20957620.531     -617872.982 9   -483605.598 9
  23005088.319   -13377921.536 7 -10429288.400 4
  21231940.104    13095106.644 8   2146435.488 9
 92  5 30  6  7 30.0010000  0  5  3 21 23 28 17
  22254793.117    19086159.611 7   7606409.691 4
  21966319.294     3566640.725 7  -7644183.690 6
  20962446.021     -592503.900 9   -463837.483 9
  22991033.749   -13451768.205 7 -10486831.206 4
  21238879.999    13131577.413 8   2174854.266 9
 92  5 30  6  8  0.0010000  0  5  3 21 23 28 17
  22274303.970    19188698.046 7   7686309.739 4
  21958410.289     3525091.744 7  -7676559.505 6
  20967332.877     -566836.318 9   -443836.758 9
  22977056.645   -13525212.726 7 -10544060.647 4
  21245873.168    13168321.970 8   2203486.385 9
 92  5 30  6  8 30.0010000  0  5  3 21 23 28 17
  22293906.530    19291695.943 7   7766567.806 4
  21950560.433     3483843.559 7  -7708700.907 6
  20972273.247     -540873.345 9   -423605.858 9
  22963158.716   -13598252.446 7 -10600974.723 4
  21252913.494    13205344.887 8   2232335.412 9
 92  5 30  6  9  0.0010000  0  5  3 21 23 28 17
  22313592.851    19395149.755 7   7847181.093 4
  21942767.208     3442883.964 7  -7740617.446 6
  20977268.299     -514627.846 9   -403154.811 9
  22949337.144   -13670893.376 7 -10657578.005 4
  21260012.340    13242642.842 8   2261398.745 9
 92  5 30  6  9 30.0010000  0  5  3 21 23 28 17
  22333365.393    19499053.034 7   7928144.640 4
  21935027.856     3402210.095 7  -7772311.349 6
  20982313.327     -488116.551 9   -382496.666 9
  22935581.737   -13743166.647 7 -10713894.786 4
  21267161.550    13280196.217 8   2290661.117 9
 92  5 30  6 10  0.0010000  0  5  3 21 23 28 17
  22353220.378    19603407.786 7   8009459.997 4
  21927340.848     3361821.200 7  -7803783.197 6
  20987408.180     -461334.943 9   -361627.871 9
  22921899.449   -13815076.103 7 -10769928.145 4
  21274358.188    13318007.533 8   2320124.463 9
 92  5 30  6 10 30.0010000  0  5  3 21 23 28 17
  22373165.480    19708205.014 7   8091120.146 4
  21919707.682     3321694.821 7  -7835050.459 6
  20992555.916     -434288.273 9   -340552.540 9
  22908286.863   -13886620.962 7 -10825677.354 4
  21281599.165    13356067.601 8   2349781.659 9
 92  5 30  6 11  0.0010000  0  5  3 21 23 28 17
  22393192.905    19813444.106 7   8173124.573 4
  21912122.813     3281834.405 7  -7866110.499 6
  20997754.947     -406961.069 9   -319258.619 9
  22894741.670   -13957793.511 7 -10881136.436 4
  21288891.317    13394374.267 8   2379631.005 9
 92  5 30  6 11 30.0010000  0  5  3 21 23 28 17
  22413300.255    19919125.478 7   8255473.674 4
  21904590.707     3242254.640 7  -7896951.865 6
  21003016.484     -379328.465 9   -297726.704 9
  22881270.826   -14028576.755 7 -10936292.181 4
  21296225.980    13432940.556 8   2409682.647 9
 92  5 30  6 12  0.0010000  0  5  3 21 23 28 17
  22433493.795    20025245.103 7   8338164.251 4
  21897110.916     3202961.695 7  -7927569.665 6
  21008333.004     -351377.023 9   -275946.358 9
  22867879.157   -14098945.884 7 -10991125.272 4
  21303615.384    13471781.092 8   2439947.985 9
 92  5 30  6 12 30.0010000  0  5  3 21 23 28 17
  22453772.777    20131801.506 7   8421195.138 4
  21889688.684     3163969.873 7  -7957952.854 6
  21013715.298     -323101.269 9   -253913.290 9
  22854570.620   -14168902.557 7 -11045636.911 4
  21311062.438    13510905.544 8   2470434.565 9
 92  5 30  6 13  0.0010000  0  5  3 21 23 28 17
  22474135.670    20238793.479 7   8504565.455 4
  21882329.708     3125282.260 7  -7988099.029 6
  21019158.329     -294500.123 9   -231626.701 9
  22841331.815   -14238450.364 7 -11099829.970 4
  21318560.608    13550306.444 8   2501136.560 9
 92  5 30  6 13 30.0010000  0  5  3 21 23 28 17
  22494574.770    20346219.409 7   8588273.932 4
  21875024.815     3086887.314 7  -8018017.165 6
  21024660.181     -265586.967 9   -209096.956 9
  22828176.682   -14307579.487 7 -11153696.820 4
  21326110.941    13589983.562 8   2532053.784 9
 92  5 30  6 14  0.0010000  0  5  3 21 23 28 17
  22515099.761    20454068.753 6   8672312.320 4
  21867771.397     3048766.978 7  -8047721.268 6
  21030213.356     -236388.782 9   -186345.119 9
  22815102.403   -14376303.807 7 -11207248.192 4
  21333706.482    13629912.353 8   2563167.117 9
 92  5 30  6 14 30.0010000  0  5  3 21 23 28 17
  22535703.777    20562347.299 6   8756685.181 4
  21860569.243     3010918.430 7  -8077213.619 6
  21035825.111     -206912.807 9   -163376.817 9
  22802098.216   -14444621.154 7 -11260482.458 5
  21341352.329    13670086.392 8   2594471.550 9
 92  5 30  6 15  0.0010000  0  5  3 21 23 28 17
  22556388.917    20671051.712 7   8841389.890 4
  21853415.295     2973338.697 7  -8106496.492 6
  21041480.846     -177176.896 9   -140205.978 9
  22789181.718   -14512511.240 7 -11313383.826 4
  21349044.704    13710508.996 8   2625969.680 9
 92  5 30  6 15 30.0010000  0  5  3 21 23 28 17
  22577156.890    20780171.477 7   8926418.216 3
  21846319.897     2936045.629 7  -8135556.007 6
  21047185.477     -147203.703 9   -116850.235 9
  22776343.585   -14579975.486 7 -11365953.362 5
  21356788.823    13751193.057 8   2657671.522 9
 92  5 30  6 16  0.0010000  0  5  3 21 23 28 17
  22597997.292    20889711.078 6   9011773.682 3
  21839279.362     2899060.340 7  -8164375.656 6
  21052933.907     -116983.856 9    -93302.297 9
  22763590.234   -14647020.337 7 -11418196.043 5
  21364583.696    13792154.080 8   2689589.198 9
 92  5 30  6 16 30.0010000  0  5  3 21 23 28 17
  22618923.135    20999674.113 7   9097459.148 3
  21832301.062     2862382.894 7  -8192955.449 6
  21058734.921      -86510.531 9    -69556.842 9
  22750912.401   -14713632.938 7 -11470101.968 5
  21372436.070    13833413.507 8   2721739.396 9
 92  5 30  6 17  0.0010000  0  5  3 21 23 28 17
  22639928.903    21110054.825 7   9183470.047 3
  21825381.972     2826018.549 7  -8221291.275 6
  21064582.253      -55785.583 9    -45615.327 9
  22738318.540   -14779813.783 7 -11521671.447 5
  21380346.304    13874977.044 8   2754126.550 9
 92  5 30  6 17 30.0010000  0  5  3 21 23 28 17
  22661013.277    21220849.753 6   9269803.709 3
  21818520.233     2789950.087 7  -8249396.541 6
  21070481.389      -24795.253 9    -21467.006 9
  22725797.198   -14845581.057 7 -11572918.646 5
  21388310.681    13916833.667 8   2786742.087 8
 92  5 30  6 18  0.0010000  0  5  3 21 23 28 17
  22682172.509    21332057.001 6   9356458.668 3
  21811704.002     2754135.843 7  -8277303.714 6
  21076432.449        6478.665 9      2902.287 9
  22713365.584   -14910934.532 7 -11623843.417 5
  21396327.281    13958968.911 8   2819574.740 9
 92  5 30  6 18 30.0010000  0  5  3 21 23 28 17
  22703411.575    21443670.990 7   9443430.589 3
  21804932.170     2718554.803 7  -8305029.166 6
  21082436.543       38030.437 9     27488.071 9
  22701008.109   -14975862.682 7 -11674436.762 5
  21404394.396    14001370.011 8   2852614.538 8
 92  5 30  6 19  0.0010000  0  5  3 21 23 28 17
  22724731.975    21555694.343 7   9530721.486 3
  21798207.885     2683215.783 7  -8332566.039 6
  21088494.599       69864.342 9     52293.721 9
  22688737.094   -15040364.461 7 -11724697.851 5
  21412514.155    14044034.565 8   2885859.630 8
 92  5 30  6 19 30.0010000  0  5  3 21 23 28 17
  22746124.775    21668127.160 6   9618331.412 3
  21791527.639     2648106.617 7  -8359923.786 6
  21094605.029      101984.411 9     77322.365 9
  22676541.657   -15104439.570 7 -11774626.487 5
  21420680.981    14086954.708 8   2919303.888 8
 92  5 30  6 20  0.0010000  0  5  3 21 23 28 17
  22767597.200    21780960.472 6   9706253.420 3
  21784891.913     2613234.797 7  -8387096.592 6
  21100768.942      134371.785 9    102559.289 9
  22664432.920   -15168077.214 7 -11824214.252 5
  21428894.455    14130124.064 8   2952942.345 8
 92  5 30  6 20 30.0010000  0  5  3 21 23 28 17
  22789146.672    21894196.021 6   9794488.906 3
  21778307.511     2578634.908 8  -8414057.543 6
  21106980.971      167018.617 9    127998.374 9
  22652407.704   -15231262.245 7 -11873449.317 5
  21437157.305    14173546.746 8   2986778.179 8
 92  5 30  6 21  0.0010000  0  5  3 21 23 28 17
  22810767.224    22007827.575 6   9883032.992 3
  21771779.261     2544323.573 8  -8440793.596 6
  21113243.156      199926.111 9    153640.584 9
  22640469.699   -15294002.368 7 -11922337.686 5
  21445469.650    14217220.743 8   3020809.857 8
 92  5 30  6 21 30.0010000  0  5  3 21 23 28 17
  22832465.783    22121851.193 6   9971882.472 3
  21765305.273     2510301.407 7  -8467304.318 6
  21119559.423      233101.790 9    179491.780 9
  22628615.126   -15356293.883 7 -11970876.529 5
  21453828.434    14261153.216 8   3055042.941 8
 92  5 30  6 22  0.0010000  0  5  3 21 23 28 17
  22854241.808    22236276.234 6  10061044.844 3
  21758888.485     2476596.274 7  -8493568.041 6
  21125923.448      266553.697 9    205558.205 9
  22616850.610   -15418114.231 7 -12019048.214 5
  21462246.456    14305368.934 8   3089496.750 8
 92  5 30  6 22 30.0010000  0  5  3 21 23 28 17
  22876089.873    22351090.483 6  10150510.483 3
  21752534.444     2443193.385 7  -8519596.245 6
  21132337.927      300271.651 9    231831.938 9
  22605172.525   -15479479.550 7 -12066865.299 5
  21470713.554    14349866.176 8   3124169.908 8
 92  5 30  6 23  0.0010000  0  5  3 21 23 28 17
  22898014.265    22466294.729 6  10240279.959 3
  21746233.226     2410085.628 7  -8545394.495 6
  21138806.129      334260.496 9    258316.749 9
  22593584.797   -15540396.331 7 -12114332.939 5
  21479233.956    14394651.910 8   3159067.857 8
 92  5 30  6 23 30.0010000  0  5  3 21 23 28 17
  22920004.731    22581885.872 6  10330350.945 3
  21739987.320     2377264.771 8  -8570969.156 6
  21145322.838      368506.268 9    285001.789 9
  22582073.276   -15600865.526 7 -12161451.775 5
  21487810.688    14439722.529 8   3194187.820 8
 92  5 30  6 24  0.0010000  0  5  3 21 23 28 17
  22942078.390    22697860.468 6  10420720.758 3
  21733798.344     2344736.920 8  -8596315.524 6
  21151885.474      402984.449 9    311867.908 9
  22570650.614   -15660885.594 7 -12208220.627 5
  21496438.535    14485064.819 8   3229519.462 8
 92  5 30  6 24 30.0010000  0  5  3 21 23 28 17
  22964219.981    22814215.331 6  10511386.864 3
  21727661.353     2312494.371 8  -8621439.571 6
  21158488.044      437699.595 9    338918.671 9
  22559323.465   -15720448.960 7 -12254633.656 5
  21505117.497    14530671.584 8   3265057.187 8
 92  5 30  6 25  0.0010000  0  5  3 21 23 28 17
  22986432.984    22930948.996 6  10602348.085 3
  21721579.134     2280543.994 7  -8646335.922 6
  21165139.389      472653.856 9    366155.762 9
  22548071.745   -15779542.914 7 -12300680.861 5
  21513848.173    14576543.463 8   3300801.503 8
 92  5 30  6 25 30.0010000  0  5  3 21 23 28 17
  23008718.476    23048060.214 6  10693603.536 3
  21715558.522     2248886.714 8  -8671003.920 6
  21171834.594      507842.560 9    393575.555 9
  22536919.405   -15838152.900 7 -12346350.941 5
  21522628.135    14622695.848 8   3336764.407 8
 92  5 30  6 26  0.0010000  0  5  3 21 23 28 17
  23031075.918    23165539.565 6  10785145.868 3
  21709585.457     2217508.638 8  -8695454.374 6
  21178579.235      543274.446 9    421184.818 9
  22525857.274   -15896270.039 7 -12391637.029 5
  21531467.036    14669134.144 8   3372950.073 8
 92  5 30  6 26 30.0010000  0  5  3 21 23 28 17
  23053495.987    23283386.802 6  10876974.869 3
  21703665.635     2186401.021 7  -8719694.045 7
  21185370.313      578971.327 9    449000.560 9
  22514898.780   -15953884.979 7 -12436531.811 5
  21540363.197    14715871.784 8   3409369.002 8
 92  5 30  6 27  0.0010000  0  5  3 21 23 28 17
  23075993.672    23401603.953 6  10969092.056 3
  21697799.206     2155562.107 8  -8743724.341 7
  21192216.914      614930.979 9    477021.094 9
  22504028.635   -16011012.411 7 -12481046.632 5
  21549313.561    14762913.527 8   3446024.896 8
 92  5 30  6 27 30.0010000  0  5  3 21 23 28 17
  23098568.973    23520192.716 6  11061498.866 3
  21691979.725     2124983.425 8  -8767551.882 7
  21199109.682      651158.657 9    505250.461 9
  22493249.088   -16067647.520 7 -12525177.910 5
  21558319.446    14810258.686 8   3482917.222 8
 92  5 30  6 28  0.0010000  0  5  3 21 23 28 17
  23121196.259    23639142.035 6  11154186.659 3
  21686210.459     2094651.489 8  -8791187.133 7
  21206050.117      687640.051 9    533677.521 9
  22482563.345   -16123807.089 7 -12568938.605 5
  21567383.611    14857877.438 8   3520022.732 8
 92  5 30  6 28 30.0010000  0  5  3 21 23 28 17
  23143903.799    23758447.806 6  11247152.157 3
  21680479.926     2064562.419 8  -8814633.139 7
  21213037.829      724359.914 9    562290.397 9
  22471963.164   -16179507.275 7 -12612341.309 5
  21576496.972    14905758.662 8   3557332.780 8
 92  5 30  6 29  0.0010000  0  5  3 21 23 28 17
  23166671.447    23878109.446 6  11340394.920 3
  21674803.866     2034718.265 8  -8837888.312 7
  21220069.582      761305.595 9    591079.245 9
  22461452.320   -16234745.621 7 -12655384.202 5
  21585657.490    14953905.040 8   3594849.430 8
 92  5 30  6 29 30.0010000  0  5  3 21 23 28 17
  23189509.667    23998126.372 6  11433914.559 3
  21669171.874     2005132.803 8  -8860941.896 7
  21227141.356      798474.162 9    620041.792 9
  22451030.845   -16289501.350 7 -12698050.975 5
  21594870.922    15002325.972 8   3632580.031 8
 92  5 30  6 30  0.0010000  0  5  3 21 23 28 17
  23212414.710    24118498.146 6  11527710.739 3
  21663595.255     1975822.854 8  -8883780.777 7
  21234256.960      835863.347 9    649176.232 9
  22440701.526   -16343776.474 7 -12740343.259 5
  21604139.336    15051030.246 8   3670531.411 8
 92  5 30  6 30 30.0010000  0  5  3 21 23 28 17
  23235389.335    24239214.715 6  11621775.588 3
  21658072.418     1946789.996 8  -8906403.788 7
  21241416.693      873473.336 9    678482.695 9
  22430467.870   -16397563.721 7 -12782255.405 5
  21613463.960    15100025.350 8   3708709.398 8
 92  5 30  6 31  0.0010000  0  5  3 21 23 28 17
  23258429.165    24360277.876 6  11716110.444 3
  21652600.786     1918055.229 7  -8928794.502 7
  21248614.710      911306.900 9    707963.408 9
  22420327.180   -16450847.558 7 -12823775.260 5
  21622843.357    15149322.591 8   3747122.831 8
 92  5 30  6 31 30.0010000  0  5  3 21 23 28 17
  23281528.923    24481685.600 6  11810713.846 3
  21647194.149     1889630.079 8  -8950943.958 7
  21255857.876      949375.733 9    737627.437 9
  22410282.844   -16503635.450 7 -12864908.642 5
  21632283.222    15198912.557 8   3785764.353 8
 92  5 30  6 32  0.0010000  0  5  3 21 23 28 17
  23304697.993    24603430.861 6  11905580.267 3
  21641840.965     1861500.848 8  -8972862.801 7
  21263147.389      987680.017 9    767474.932 9
  22400333.632   -16555931.023 7 -12905658.440 5
  21641771.923    15248779.731 8   3824621.873 7
 92  5 30  6 32 30.0010000  0  5  3 21 23 28 17
  23327931.219    24725521.291 6  12000715.656 3
  21636541.264     1833670.230 8  -8994549.001 7
  21270483.761     1026231.409 9    797514.978 9
  22390477.985   -16607711.848 7 -12946007.118 5
  21651312.278    15298927.716 8   3863698.217 7
 92  5 30  6 33  0.0010000  0  5  3 21 23 28 17
  23351224.704    24847953.460 6  12096117.276 2
  21631302.391     1806133.291 8  -9016006.352 7
  21277865.730     1065021.957 9    827741.379 9
  22380720.879   -16658982.431 7 -12985958.223 6
  21660908.335    15349353.012 8   3902990.663 7
 92  5 30  6 33 30.0010000  0  5  3 21 23 28 17
  23374591.787    24970720.565 6  12191779.904 2
  21626114.992     1778873.133 8  -9037248.001 7
  21285291.679     1104042.479 9    858146.985 9
  22371064.324   -16709734.318 7 -13025505.118 6
  21670553.108    15400052.964 8   3942497.110 7
 92  5 30  6 34  0.0010000  0  5  3 21 23 28 17
  23398013.612    25093820.394 6  12287701.872 2
  21620982.935     1751880.957 8  -9058280.863 7
  21292757.501     1143286.238 9    888726.551 9
  22361509.099   -16759942.860 7 -13064628.648 6
  21680262.457    15451041.029 8   3982228.074 7
 92  5 30  6 34 30.0010000  0  5  3 21 23 28 17
  23421498.994    25217243.618 6  12383875.829 2
  21615897.885     1725164.097 8  -9079099.183 7
  21300264.903     1182749.752 9    919477.327 9
  22352054.904   -16809619.638 7 -13103337.812 6
  21690017.014    15502328.627 8   4022192.425 7
 92  5 30  6 35  0.0010000  0  5  3 21 23 28 17
  23445047.421    25340990.685 5  12480302.066 2
  21610864.430     1698724.839 8  -9099701.183 7
  21307822.701     1222443.424 9    950407.487 9
  22342706.056   -16858774.168 7 -13141640.019 6
  21699835.457    15553914.842 8   4062389.486 7
 92  5 30  6 35 30.0010000  0  5  3 21 23 28 17
  23468659.705    25465068.033 5  12576985.648 2
  21605887.935     1672565.840 8  -9120084.786 7
  21315421.601     1262386.494 9    981531.949 9
  22333449.545   -16907402.311 7 -13179532.076 6
  21709710.470    15605796.203 8   4102816.509 7
 92  5 30  6 36  0.0010000  0  6  3 21 23 28 11 17
  23492331.917    25589466.399 5  12673919.419 2
  21600959.437     1646679.610 8  -9140255.872 7
  21323070.505     1302585.246 9   1012855.654 9
  22324293.163   -16955531.139 7 -13217035.039 6
  25508340.533   -23609205.24515  -1005907.066 1
  21719636.808    15657962.452 8   4143465.513 7
 92  5 30  6 36 30.0010000  0  6  3 21 23 28 11 17
  23516063.848    25714182.652 6  12771100.878 2
  21596085.561     1621057.778 8  -9160220.936 7
  21330769.086     1343039.812 9   1044378.684 9
  22315226.001   -17003174.534 7 -13254159.756 6
  25488907.117   -23711292.634 5  -1085455.571 2
  21729613.961    15710407.158 8   4184331.508 7
 92  5 30  6 37  0.0010000  0  6  3 21 23 28 11 17
  23539860.264    25839213.086 6  12868527.133 2
  21591253.686     1595679.025 8  -9179996.550 7
  21338513.684     1383735.735 9   1076089.818 9
  22306252.133   -17050319.019 7 -13290895.702 6
  25469485.362   -23813349.804 4  -1164980.521 2
  21739644.597    15763124.915 8   4225410.290 7
 92  5 30  6 37 30.0010000  0  6  3 21 23 28 11 17
  23563710.553    25964553.111 6  12966194.661 2
  21586473.645     1570540.681 8  -9199584.866 7
  21346300.913     1424657.339 9   1107976.768 9
  22297379.385   -17096942.104 7 -13327225.371 6
  25450068.614   -23915375.619 5  -1244481.194 2
  21749733.123    15816129.118 8   4266712.256 7
 92  5 30  6 38  0.0010000  0  6  3 21 23 28 11 17
  23587618.042    26090204.810 6  13064105.056 2
  21581735.306     1545651.346 8  -9218979.143 7
  21354132.032     1465798.646 9   1140034.932 9
  22288613.364   -17143016.714 7 -13363127.641 6
  25430660.320   -24017362.528 5  -1323951.407 2
  21759877.021    15869435.852 8   4308249.953 7
 92  5 30  6 38 30.0010000  0  6  3 21 23 28 11 17
  23611590.196    26216158.035 6  13162250.397 2
  21577049.489     1521017.445 8  -9238174.363 7
  21361995.528     1507132.487 9   1172243.120 9
  22279949.932   -17188534.282 7 -13398595.876 6
  25411264.228   -24119315.398 5  -1403395.095 2
  21770077.009    15923038.621 7   4350018.337 7
 92  5 30  6 39  0.0010000  0  6  3 21 23 28 11 17
  23635617.782    26342416.272 6  13260633.391 2
  21572412.090     1496659.644 8  -9257154.444 7
  21369897.098     1548654.628 9   1204598.040 9
  22271397.662   -17233481.107 7 -13433619.375 6
  25391869.215   -24221225.170 5  -1482805.264 2
  21780331.560    15976928.986 8   4392010.830 7
 92  5 30  6 39 30.0010000  0  6  3 21 23 28 11 17
  23659694.834    26468970.361 6  13359246.941 2
  21567830.961     1472586.191 8  -9275912.991 7
  21377834.673     1590361.306 9   1237096.748 9
  22262950.200   -17277868.749 7 -13468207.115 6
  25372484.964   -24323095.314 5  -1562184.526 2
  21790638.275    16031085.309 8   4434210.555 7
 92  5 30  6 40  0.0010000  0  6  3 21 23 28 11 17
  23683831.635    26595819.703 6  13458090.580 2
  21563307.543     1448811.043 8  -9294439.088 8
  21385804.146     1632246.317 9   1269734.411 9
  22254604.668   -17321723.715 7 -13502379.818 6
  25353109.438   -24424921.161 5  -1641529.289 2
  21800992.087    16085504.424 8   4476615.038 7
 92  5 30  6 40 30.0010000  0  6  3 21 23 28 11 17
  23708029.773    26722965.408 6  13557165.166 2
  21558843.213     1425345.386 8  -9312723.980 8
  21393810.373     1674320.094 9   1302519.179 9
  22246359.506   -17365058.475 7 -13536147.156 6
  25333741.526   -24526695.874 5  -1720834.155 2
  21811399.802    16140191.110 8   4519228.043 7
 92  5 30  6 41  0.0010000  0  6  3 21 23 28 11 17
  23732277.886    26850400.537 6  13656465.212 2
  21554429.789     1402163.218 8  -9330788.013 8
  21401854.524     1716593.160 9   1335459.242 9
  22238211.746   -17407877.840 7 -13569512.879 6
  25314381.259   -24628421.050 5  -1800100.438 2
  21821859.351    16195148.647 8   4562052.079 7
 92  5 30  6 41 30.0010000  0  6  3 21 23 28 11 17
  23756582.480    26978126.841 6  13755992.112 2
  21550070.716     1379250.638 8  -9348641.962 8
  21409938.998     1759079.869 9   1368565.763 9
  22230162.139   -17450181.540 7 -13602476.792 6
  25295030.795   -24730089.170 5  -1879322.330 2
  21832373.522    16250404.167 7   4605108.322 7
 92  5 30  6 42  0.0010000  0  6  3 21 23 28 11 17
  23780946.313    27106141.523 6  13855743.827 2
  21545759.341     1356599.276 8  -9366292.337 8
  21418068.740     1801787.750 9   1401844.633 9
  22222210.114   -17491971.053 7 -13635040.036 6
  25275700.417   -24831697.272 5  -1958497.414 2
  21842944.624    16305977.781 7   4648412.427 7
 92  5 30  6 42 30.0010000  0  6  3 21 23 28 11 17
  23805364.139    27234440.272 5  13955716.882 2
  21541495.003     1334181.729 8  -9383760.552 8
  21426239.343     1844738.298 9   1435312.589 9
  22214361.997   -17533217.128 7 -13667179.823 6
  25256381.251   -24933244.132 5  -2037624.735 2
  21853584.498    16361867.214 8   4691962.626 7
 92  5 30  6 43  0.0010000  0  6  3 21 23 28 11 17
  23829834.459    27363016.365 5  14055905.946 2
  21537270.148     1311982.576 8  -9401058.598 8
  21434458.363     1887919.027 9   1468959.917 9
  22206617.758   -17573912.883 7 -13698890.785 6
  25237064.154   -25034730.942 5  -2116705.322 2
  21864277.376    16418062.878 8   4735751.455 7
 92  5 30  6 43 30.0010000  0  6  3 21 23 28 11 17
  23854348.398    27491867.909 5  14156309.691 2
  21533091.401     1290016.895 8  -9418174.688 8
  21442714.827     1931320.961 9   1502779.609 9
  22198974.070   -17614062.788 7 -13730176.436 6
  25217758.539   -25136153.911 5  -2195736.184 2
  21875029.252    16474560.279 8   4779775.397 7
 92  5 30  6 44  0.0010000  0  6  3 21 23 28 11 17
  23878921.127    27620991.814 5  14256925.688 2
  21528957.683     1268303.285 8  -9435094.356 8
  21451017.220     1974934.426 9   1536764.117 9
  22191442.504   -17653652.273 7 -13761025.358 6
  25198482.903   -25237510.242 5  -2274715.081 2
  21885833.623    16531346.729 8   4824024.558 7
 92  5 30  6 44 30.0010000  0  6  3 21 23 28 11 17
  23903543.771    27750387.102 6  14357753.128 2
  21524873.670     1246851.225 8  -9451810.230 8
  21459354.148     2018750.678 9   1570906.669 9
  22184016.495   -17692672.784 7 -13791430.930 6
  25179202.261   -25338795.493 5  -2353638.601 2
  21896697.232    16588409.175 8   4868488.767 7
 92  5 30  6 45  0.0010000  0  6  3 21 23 28 11 17
  23928217.290    27880050.551 6  14458789.511 2
  21520849.406     1225682.255 8  -9468305.523 8
  21467726.572     2062749.366 9   1605191.368 9
  22176696.942   -17731137.747 7 -13821403.636 6
  25159941.165   -25440007.005 5  -2432504.672 2
  21907602.392    16645747.069 8   4913167.650 6
 92  5 30  6 45 30.0010000  0  6  3 21 23 28 11 17
  23952943.392    28009981.663 6  14560034.522 2
  21516874.638     1204807.935 8  -9484571.202 8
  21476132.753     2106929.062 9   1639617.109 9
  22169482.167   -17769049.533 7 -13850945.288 6
  25140696.978   -25541139.714 5  -2511309.351 2
  21918565.113    16703357.863 8   4958059.162 6
 92  5 30  6 46  0.0010000  0  6  3 21 23 28 11 17
  23977717.252    28140176.010 6  14661484.648 2
  21512956.830     1184225.538 8  -9500609.421 8
  21484576.227     2151291.286 9   1674185.070 9
  22162377.985   -17806395.773 8 -13880046.230 6
  25121469.938   -25642191.804 5  -2590051.126 2
  21929580.627    16761234.579 8   5003157.900 6
 92  5 30  6 46 30.0010000  0  6  3 21 23 28 11 17
  24002545.164    28270635.197 6  14763141.035 2
  21509097.751     1163931.340 8  -9516423.092 8
  21493052.260     2195840.612 9   1708898.833 9
  22155374.503   -17843177.931 7 -13908707.672 6
  25102259.148   -25743156.592 5  -2668724.934 2
  21940645.907    16819387.078 7   5048471.499 6
 92  5 30  6 47  0.0010000  0  6  3 21 23 28 11 17
  24027416.726    28401351.858 6  14864998.137 2
  21505290.747     1143915.935 8  -9532019.478 8
  21501565.466     2240573.051 9   1743755.293 9
  22148482.005   -17879397.155 7 -13936930.438 6
  25083056.331   -25844035.317 5  -2747331.728 2
  21951767.488    16877820.879 8   5094004.316 6
 92  5 30  6 47 30.0010000  0  6  3 21 23 28 11 17
  24052337.813    28532320.405 6  14967051.519 2
  21501531.499     1124174.888 8  -9547402.085 8
  21510113.658     2285489.377 9   1778755.035 9
  22141702.258   -17915042.512 7 -13964706.008 6
  25063880.886   -25944827.729 5  -2825871.236 2
  21962943.151    16936545.745 7   5139763.941 6
 92  5 30  6 48  0.0010000  0  6  3 21 23 28 11 17
  24077311.304    28663538.839 5  15069299.583 2
  21497825.945     1104702.760 8  -9562575.167 8
  21518695.847     2330604.890 9   1813909.955 9
  22135029.838   -17950106.488 7 -13992028.613 6
  25044719.651   -26045530.209 5  -2904340.606 2
  21974178.533    16995583.440 7   5185767.311 6
 92  5 30  6 48 30.0010000  0  6  3 21 23 28 11 17
  24102329.524    28795003.731 5  15171739.692 2
  21494170.485     1085490.087 8  -9577546.058 8
  21527320.366     2375913.311 9   1849215.248 9
  22128468.670   -17984592.170 8 -14018900.554 6
  25025567.560   -26146140.239 5  -2982737.974 2
  21985475.792    17054945.456 7   5232023.421 6
 92  5 30  6 49  0.0010000  0  6  3 21 23 28 11 17
  24127390.765    28926714.455 5  15274371.351 2
  21490564.162     1066538.211 8  -9592313.730 8
  21535977.653     2421419.065 9   1884674.260 9
  22122012.789   -18018498.634 7 -14045321.160 7
  25006444.369   -26246652.447 5  -3061059.195 2
  21996830.551    17114633.361 7   5278533.444 6
 92  5 30  6 49 30.0010000  0  6  3 21 23 28 11 17
  24152492.118    29058670.214 5  15377194.031 2
  21487008.354     1047845.302 8  -9606879.611 8
  21544675.382     2467120.634 9   1920285.901 9
  22115669.211   -18051829.569 7 -14071293.314 7
  24987339.825   -26347061.887 5  -3139300.229 2
  22008248.387    17174635.584 7   5325288.418 6
 92  5 30  6 50  0.0010000  0  6  3 21 23 28 11 17
  24177654.928    29190868.790 5  15480205.821 2
  21483494.456     1029397.197 8  -9621254.743 8
  21553407.496     2513010.336 9   1956044.093 9
  22109439.104   -18084586.091 7 -14096817.884 7
  24968248.381   -26447365.045 5  -3217458.402 2
  22019724.172    17234936.179 8   5372275.869 6
 92  5 30  6 50 30.0010000  0  6  3 21 23 28 11 17
  24202857.191    29323301.762 5  15583400.293 2
  21480032.693     1011191.365 8  -9635441.104 8
  21562173.578     2559066.582 9   1991932.079 9
  22103311.436   -18116768.128 7 -14121894.779 7
  24949182.360   -26547564.374 5  -3295535.850 2
  22031248.224    17295513.433 7   5419478.894 6
 92  5 30  6 51  0.0010000  0  6  3 21 23 28 11 17
  24228101.005    29455965.852 5  15686774.866 2
  21476613.770      993226.549 8  -9649439.631 8
  21570968.649     2605299.109 9   2027957.439 9
  22097297.209   -18148381.213 7 -14146528.376 7
  24930133.758   -26647657.456 5  -3373530.390 2
  22042826.119    17356355.587 7   5466888.349 6
 92  5 30  6 51 30.0010000  0  6  3 21 23 28 11 17
  24253389.668    29588873.916 5  15790339.538 2
  21473241.644      975512.216 8  -9663243.003 8
  21579807.880     2651731.564 9   2064138.579 9
  22091396.215   -18179404.275 7 -14170702.184 6
  24911108.448   -26747625.241 5  -3451427.251 2
  22054460.495    17417483.304 7   5514520.326 6
 92  5 30  6 52  0.0010000  0  6  3 21 23 28 11 17
  24278735.261    29722021.554 5  15894090.882 2
  21469919.074      958052.415 8  -9676848.044 8
  21588682.276     2698375.074 9   2100484.171 9
  22085605.364   -18209837.688 7 -14194416.519 6
  24892111.979   -26847466.385 5  -3529225.447 2
  22066149.073    17478905.073 7   5562381.416 6
 92  5 30  6 52 30.0010000  0  6  3 21 23 28 11 17
  24304111.224    29855392.341 5  15998016.150 2
  21466646.120      940847.691 8  -9690254.296 8
  21597597.864     2745229.776 9   2136994.341 9
  22079917.761   -18239705.415 7 -14217690.070 6
  24873130.110   -26947191.473 5  -3606933.341 2
  22077887.896    17540604.942 8   5610459.220 6
 92  5 30  6 53  0.0010000  0  6  3 21 23 28 11 17
  24329531.886    29988984.948 5  16102114.311 2
  21463423.381      923902.854 8  -9703458.051 8
  21606553.714     2792301.947 9   2173673.966 9
  22074342.581   -18269010.761 7 -14240525.422 6
  24854174.323   -27046795.593 5  -3684546.887 2
  22089692.164    17602599.710 8   5658766.821 6
 92  5 30  6 53 30.0010000  0  6  3 21 23 28 11 17
  24354994.878    30122795.777 5  16206382.409 2
  21460249.598      907235.001 8  -9716445.991 8
  21615551.775     2839576.106 8   2210510.979 9
  22068873.617   -18297739.371 7 -14262911.343 6
  24835249.864   -27146276.418 6  -3762064.303 2
  22101542.391    17664895.053 7   5707308.615 6
 92  5 30  6 54  0.0010000  0  6  3 21 23 28 11 17
  24380500.950    30256817.701 5  16310814.978 2
  21457130.648      890846.610 8  -9729216.158 8
  21624580.414     2887028.571 9   2247486.920 9
  22063520.463   -18325886.937 7 -14284844.508 6
  24816342.044   -27245635.109 6  -3839486.693 2
  22113452.905    17727482.534 7   5756078.050 6
 92  5 30  6 54 30.0010000  0  6  3 21 23 28 11 17
  24406046.895    30391055.404 6  16415415.750 2
  21454065.240      874738.588 8  -9741767.844 8
  21633643.440     2934645.271 9   2284590.843 9
  22058276.193   -18353430.247 8 -14306306.841 6
  24797461.655   -27344861.292 6  -3916805.759 2
  22125417.082    17790372.352 7   5805083.089 6
 92  5 30  6 55  0.0010000  0  6  3 21 23 28 11 17
  24431629.625    30525506.709 6  16520182.962 2
  21451049.567      858895.084 8  -9754113.407 8
  21642729.970     2982412.362 9   2321811.970 9
  22053153.220   -18380351.907 7 -14327284.736 7
  24778603.180   -27443951.236 5  -3994018.570 2
  22137450.032    17853572.621 7   5854330.057 6
 92  5 30  6 55 30.0010000  0  6  3 21 23 28 11 17
  24457259.422    30660159.786 5  16625107.322 2
  21448083.691      843300.047 8  -9766265.388 8
  21651845.489     3030310.768 9   2359135.394 9
  22048150.073   -18406659.497 7 -14347784.157 6
  24759773.396   -27542910.365 6  -4071129.561 2
  22149527.351    17917052.042 7   5903794.511 6
 92  5 30  6 56  0.0010000  0  6  3 21 23 28 11 17
  24482921.776    30795016.529 5  16730190.469 2
  21445161.224      827937.696 8  -9778236.029 8
  21660988.770     3078351.718 9   2396569.899 9
  22043259.469   -18432358.303 8 -14367809.224 6
  24740967.894   -27641730.865 6  -4148132.573 2
  22161662.320    17980811.076 7   5953476.834 6
 92  5 30  6 56 30.0020000  0  6  3 21 23 28 11 17
  24508621.185    30930078.534 5  16835433.509 2
  21442281.927      812812.568 8  -9790021.823 8
  21670161.250     3126551.756 8   2434128.372 9
  22038484.465   -18457462.881 8 -14387371.227 6
  24722193.691   -27740412.911 5  -4225027.586 2
  22173846.995    18044855.152 7   6003381.299 6
 92  5 30  6 57  0.0020000  0  6  3 21 23 28 11 17
  24534360.016    31065335.981 5  16940828.811 2
  21439448.049      797931.681 8  -9801617.317 8
  21679365.328     3174928.746 8   2471824.743 9
  22033817.446   -18481982.383 8 -14406477.346 6
  24703438.256   -27838944.600 5  -4301805.450 2
  22186087.042    18109179.696 7   6053504.310 6
 92  5 30  6 57 30.0020000  0  6  3 21 23 28 11 17
  24560130.655    31200785.878 4  17046374.082 3
  21436665.735      783308.096 8  -9813012.292 8
  21688607.899     3223491.661 8   2509665.959 9
  22029259.341   -18505931.101 8 -14425138.680 6
  24684716.366   -27937330.871 6  -4378470.059 2
  22198381.710    18173785.138 7   6103846.198 6
 92  5 30  6 58  0.0020000  0  6  3 21 23 28 11 17
  24585942.156    31336430.885 3  17152071.398 2
  21433934.476      768949.450 8  -9824200.820 8
  21697888.364     3272260.325 8   2547667.504 9
  22024812.310   -18529299.699 8 -14443347.997 6
  24666026.945   -28035562.806 6  -4455014.380 2
  22210735.348    18238705.734 7   6154433.622 6
 92  5 30  6 58 30.0020000  0  6  3 21 23 28 11 17
  24611794.429    31472266.830 3  17257917.427 2
  21431251.933      754861.314 8  -9835178.597 8
  21707208.432     3321233.117 9   2585828.120 9
  22020475.962   -18552087.550 7 -14461104.774 7
  24647357.250   -28133638.554 6  -4531437.006 2
  22223148.135    18303940.968 7   6205266.287 6
 92  5 30  6 59  0.0020000  0  5 21 23 28 11 17
  21428622.214      741038.181 8  -9845949.854 8
  21716563.096     3370398.716 9   2624138.972 9
  22016250.867   -18574286.315 7 -14478402.518 6
  24628729.315   -28231554.194 6  -4607734.912 2
  22235622.859    18369486.161 7   6256340.428 6
 92  5 30  6 59 30.0020000  0  5 21 23 28 11 17
  21426040.191      727473.900 8  -9856519.399 8
  21725954.964     3419744.067 9   2662589.896 9
  22012140.322   -18595892.885 7 -14495238.802 7
  24610127.403   -28329310.600 6  -4683908.676 2
  22248152.025    18435338.691 7   6307654.069 6
 92  5 30  7  0  0.0020000  0  6  3 21 23 28 11 17
  24689556.336      -25010.97215      8866.869
  21423509.313      714156.262 8  -9866896.758 8
  21735378.281     3469266.312 9   2701178.631 9
  22008143.909   -18616899.931 7 -14511607.914 7
  24591551.393   -28426903.466 5  -4759954.976 2
  22260739.980    18501492.548 7   6359202.520 6
 92  5 30  7  0 30.0020000  0  6  3 21 23 28 11 17
  24715535.751      111550.101 5    115278.087
  21421020.106      701084.030 8  -9877082.916 8
  21744830.107     3518947.851 9   2739891.522 9
  22004263.545   -18637297.465 8 -14527502.108 7
  24573013.097   -28524331.885 6  -4835873.221 2
  22273383.128    18567920.136 7   6410964.263 6
 92  5 30  7  1  0.0020000  0  6  3 21 23 28 11 17
  24741556.507      248283.940 5    221824.188
  21418580.695      688253.652 8  -9887080.605 8
  21754315.781     3568786.508 9   2778726.825 9
  22000496.383   -18657075.398 7 -14542913.492 7
  24554506.879   -28621592.481 6  -4911660.695 2
  22286075.321    18634620.793 7   6462938.771 6
 92  5 30  7  1 30.0020000  0  6  3 21 23 28 11 17
  24767607.602      385188.590 5    328503.095 1
  21416183.944      675663.578 8  -9896891.028 8
  21763829.484     3618786.204 9   2817687.629 9
  21996853.995   -18676225.484 7 -14557835.621 7
  24536036.455   -28718680.199 6  -4987313.389 2
  22298822.556    18701605.652 7   6515134.734 6
 92  5 30  7  2  0.0020000  0  6  3 21 23 28 11 17
  24793696.771      522259.265 5    435311.335
  21413832.073      663312.753 8  -9906515.052 8
  21773373.827     3668937.313 9   2856766.385 9
  21993328.286   -18694753.148 7 -14572272.782 7
  24517583.810   -28815594.142 5  -5062830.700 2
  22311621.386    18768869.567 7   6567548.161 6
 92  5 30  7  2 30.0020000  0  6  3 21 23 28 11 17
  24819806.865      659495.932 5    542248.910 1
  21411527.418      651208.504 8  -9915946.946 8
  21782945.391     3719232.491 9   2895957.422 9
  21989921.564   -18712652.240 7 -14586220.152 7
  24499177.302   -28912327.891 5  -5138207.688 2
  22324476.966    18836420.984 7   6620185.581 6
 92  5 30  7  3  0.0020000  0  6  3 21 23 28 11 17
  24845956.322      796892.664 6    649311.273 1
  21409272.949      639356.392 8  -9925182.320 8
  21792543.726     3769682.496 9   2935269.102 9
  21986635.329   -18729939.361 7 -14599690.609 7
  24480808.749   -29008881.402 6  -5213444.144 2
  22337390.976    18904275.221 7   6673058.997 6
 92  5 30  7  3 30.0020000  0  6  3 21 23 28 11 17
  24872130.902      934450.617 5    756499.167 1
  21407068.605      627771.629 8  -9934209.392 8
  21802175.158     3820290.559 9   2974703.931 9
  21983461.157   -18746607.602 7 -14612678.860 7
  24462473.562   -29105247.312 6  -5288534.405 2
  22350361.197    18972440.665 7   6726174.912 6
 92  5 30  7  4  0.0020000  0  6  3 21 23 28 11 17
  24898342.926     1072169.251 5    863812.289 2
  21404919.513      616461.765 8  -9943022.275 8
  21811834.981     3871061.013 9   3014265.322 9
  21980404.922   -18762658.312 7 -14625185.911 7
  24444168.774   -29201419.955 6  -5363474.151 2
  22363390.957    19040908.069 7   6779526.134 6
 92  5 30  7  4 30.0020000  0  6  3 21 23 28 11 17
  24924571.738     1210042.609 5    971245.993 2
  21402815.209      605425.100 8  -9951622.276 8
  21821530.149     3921997.197 9   3053955.847 9
  21977467.946   -18778091.272 7 -14637211.595 7
  24425902.240   -29297399.018 6  -5438262.979 2
  22376474.409    19109679.696 7   6833114.373 5
 92  5 30  7  5  0.0020000  0  6  3 21 23 28 11 17
  24950844.380     1348066.671 5   1078797.055 2
  21400767.567      594657.652 8  -9960012.469 8
  21831251.999     3973100.592 9   3093776.664 9
  21974648.128   -18792917.483 8 -14648764.486 7
  24407675.248   -29393182.198 6  -5512899.194 2
  22389622.857    19178755.983 7   6886940.026 5
 92  5 30  7  5 30.0020000  0  6  3 21 23 28 11 17
  24977129.253     1486236.991 4   1186462.161 2
  21398766.722      584136.812 8  -9968210.546 8
  21841008.774     4024358.144 9   3133717.587 9
  21971938.214   -18807142.876 7 -14659849.220 7
  24389486.060   -29488768.080 6  -5587381.711 2
  22402825.087    19248121.615 7   6940991.178 5
 92  5 30  7  6  0.0020000  0  6  3 21 23 28 11 17
  25003454.718     1624555.877 3   1294242.923 3
  21396807.339      573850.000 8  -9976226.238 8
  21850792.651     4075762.544 9   3173772.967 9
  21969346.388   -18820765.369 7 -14670464.142 7
  24371337.404   -29584148.072 6  -5661703.731 2
  22416076.693    19317775.786 7   6995267.130 5
 92  5 30  7  6 30.0020000  0  6  3 21 23 28 11 17
  25029821.615     1763018.813 3   1402135.981 3
  21394891.725      563792.028 8  -9984063.594 8
  21860598.892     4127304.808 9   3213935.748 9
  21966867.584   -18833780.331 7 -14680605.693 7
  24353225.203   -29679320.486 6  -5735864.038 2
  22429384.120    19387722.409 7   7049770.939 5
 92  5 30  7  7  0.0020000  0  5 21 23 28 11 17
  21393019.910      553945.561 8  -9991736.152 8
  21870430.886     4178976.586 8   3254199.462 8
  21964510.856   -18846188.905 7 -14690274.729 7
  24335153.174   -29774288.841 6  -5809865.388 2
  22442747.639    19457952.365 7   7104495.562 5
 92  5 30  7  7 30.0020000  0  5 21 23 28 11 17
  21391189.408      544314.591 8  -9999240.811 8
  21880289.111     4230784.305 8   3294569.097 9
  21962266.609   -18857962.885 8 -14699449.268 7
  24317123.656   -29869044.865 6  -5883701.185 2
  22456172.225    19528468.733 7   7159443.373 5
 92  5 30  7  8  0.0020000  0  5 21 23 28 11 17
  21389401.386      534913.177 8 -10006566.582 8
  21890175.907     4282737.811 9   3335052.335 9
  21960152.263   -18869089.102 8 -14708119.050 7
  24299132.780   -29963579.845 6  -5957364.820 2
  22469646.997    19599292.108 7   7214630.381 5
 92  5 30  7  8 30.0020000  0  6  3 21 23 28 11 17
  25135456.785       88050.65915     82820.147
  21387659.202      525754.796 8 -10013702.985 8
  21900094.510     4334855.707 9   3375663.696 9
  21958154.866   -18879577.964 7 -14716292.196 7
  24281179.889   -30057894.254 6  -6030856.537 2
  22483181.248    19670421.254 7   7270055.673 5
 92  5 30  7  9  0.0020000  0  6  3 21 23 28 11 17
  25161935.115      227182.979 5    191234.610
  21385960.638      516845.621 8 -10020645.212 8
  21910045.281     4387142.103 8   3416406.304 8
  21956275.797   -18889435.992 7 -14723973.790 7
  24263281.290   -30151986.089 6  -6104174.787 3
  22496776.236    19741855.253 7   7325718.541 5
 92  5 30  7  9 30.0020000  0  6  3 21 23 28 11 17
  25188428.943      366440.872 5    299744.656
  21384317.355      508202.733 8 -10027379.923 8
  21920025.762     4439597.163 8   3457280.378 8
  21954521.321   -18898667.957 7 -14731167.525 7
  24245419.355   -30245851.038 6  -6177316.285 3
  22510422.579    19813586.413 7   7381612.897 5
 92  5 30  7 10  0.0020000  0  6  3 21 23 28 11 17
  25214954.220      505816.998 5    408349.178
  21382723.628      499832.632 8 -10033902.066 8
  21930036.642     4492213.780 8   3498280.347 8
  21952883.615   -18907293.896 7 -14737889.072 7
  24227602.000   -30339490.671 6  -6250282.265 3
  22524132.987    19885610.245 7   7437735.327 5
 92  5 30  7 10 30.0020000  0  6  3 21 23 28 11 17
  25241501.202      645313.137 5    517047.468 1
  21381183.415      491748.764 8 -10040201.174 8
  21940080.618     4544992.064 8   3539406.276 8
  21951356.592   -18915302.716 7 -14744129.686 7
  24209824.277   -30432896.804 6  -6323066.198 3
  22537894.870    19957923.646 7   7494083.420 5
 92  5 30  7 11  0.0020000  0  6  3 21 23 28 11 17
  25268068.510      784926.895 6    625837.099
  21379696.624      483932.637 8 -10046291.668 8
  21950149.987     4597920.275 8   3580649.012 8
  21949955.332   -18922677.559 8 -14749876.352 7
  24192096.860   -30526065.737 6  -6395665.386 2
  22551704.300    20030520.332 7   7550652.255 5
 92  5 30  7 11 30.0020000  0  6  3 21 23 28 11 17
  25294654.855      924650.000 5    734712.350 1
  21378258.100      476364.774 8 -10052188.683 8
  21960250.895     4650983.287 8   3621996.825 8
  21948675.038   -18929414.843 7 -14755126.198 7
  24174416.240   -30618999.211 6  -6468081.058 2
  22565570.930    20103389.505 7   7607433.415 5
 92  5 30  7 12  0.0020000  0  5 21 23 28 11 17
  21376860.887      469033.486 8 -10057901.374 8
  21970371.768     4704173.397 8   3663443.660 8
  21947514.392   -18935517.832 7 -14759881.770 7
  24156773.993   -30711693.451 6  -6540310.280 3
  22579490.954    20176544.193 7   7664437.028 5
 92  5 30  7 12 30.0020000  0  5 21 23 28 11 17
  21375511.251      461927.409 8 -10063438.577 8
  21980519.683     4757500.584 8   3704997.294 8
  21946472.373   -18940979.409 7 -14764137.557 7
  24139173.478   -30804139.518 6  -6612346.194 3
  22593471.805    20249985.521 7   7721663.993 5
 92  5 30  7 13  0.0020000  0  5 21 23 28 11 17
  21374200.889      455043.157 8 -10068802.923 8
  21990692.660     4810967.609 8   3746659.905 8
  21945548.893   -18945815.537 7 -14767905.959 7
  24121637.388   -30896333.677 6  -6684185.768 3
  22607499.694    20323715.345 7   7779115.782 5
 92  5 30  7 13 30.0020000  0  5 21 23 28 11 17
  21372933.876      448391.513 8 -10073986.008 8
  22000894.987     4864575.429 8   3788432.250 8
  21944744.460   -18950052.791 7 -14771207.729 7
  24104139.012   -30988277.323 6  -6755830.117 3
  22621586.102    20397745.337 7   7836801.462 5
 92  5 30  7 14  0.0020000  0  5 21 23 28 11 17
  21371712.521      441976.231 8 -10078984.933 8
  22011122.977     4918338.975 8   3830325.911 8
  21944052.419   -18953695.115 7 -14774045.916 7
  24086695.318   -31079964.399 6  -6827274.596 3
  22635734.057    20472087.337 7   7894730.287 5
 92  5 30  7 14 30.0020000  0  5 21 23 28 11 17
  21370541.022      435802.732 8 -10083795.451 8
  22021387.870     4972272.743 8   3872352.223 8
  21943473.999   -18956733.576 7 -14776413.566 7
  24069296.533   -31171390.003 6  -6898515.313 3
  22649937.325    20546729.776 7   7952893.210 5
 92  5 30  7 15  0.0020000  0  5 21 23 28 11 17
  21369411.344      429878.843 8 -10088411.454 8
  22031684.033     5026361.543 8   3914499.308 8
  21943008.631   -18959176.579 7 -14778317.213 7
  24051945.774   -31262558.835 6  -6969555.899 3
  22664198.302    20621666.148 7   8011285.143 5
 92  5 30  7 15 30.0020000  0  5 21 23 28 11 17
  21368329.303      424195.263 8 -10092840.222 8
  22042003.668     5080595.961 8   3956759.902 8
  21942660.812   -18961006.173 7 -14779742.877 7
  24034647.390   -31353469.207 6  -7040395.152 3
  22678516.450    20696893.845 7   8069904.115 5
 92  5 30  7 16  0.0020000  0  5 21 23 28 11 17
  21367300.835      418765.587 8 -10097071.147 8
  22052347.018     5134973.032 8   3999131.654 8
  21942434.858   -18962189.626 7 -14780665.076 7
  24017399.670   -31444104.820 6  -7111020.294 3
  22692883.104    20772412.536 7   8128749.821 5
 92  5 30  7 16 30.0020000  0  5 21 23 28 11 17
  21366310.741      413591.144 8 -10101103.155 8
  22062723.734     5189476.813 8   4041602.124 8
  21942333.858   -18962732.187 7 -14781087.854 7
  24000198.209   -31534472.237 6  -7181436.421 3
  22707307.228    20848210.232 7   8187812.937 5
 92  5 30  7 17  0.0020000  0  5 21 23 28 11 17
  21365373.919      408668.129 8 -10104939.254 8
  22073117.329     5244103.565 8   4084168.421 8
  21942350.167   -18962626.350 7 -14781005.379 7
  23983057.485   -31624566.030 6  -7251639.372 3
  22721785.435    20924301.010 7   8247104.444 5
 92  5 30  7 17 30.0020000  0  5 21 23 28 11 17
  21364481.617      403977.955 8 -10108593.937 8
  22083536.286     5298854.596 8   4126831.566 8
  21942498.564   -18961866.214 8 -14780413.092 7
  23965968.475   -31714385.240 6  -7321628.366 3
  22736321.442    21000678.107 7   8306619.042 5
 92  5 30  7 18  0.0020000  0  5 21 23 28 11 17
  21363635.033      399527.252 8 -10112062.020 9
  22093983.244     5353734.412 8   4169595.047 8
  21942765.110   -18960456.497 7 -14779314.625 7
  23948928.302   -31803920.798 6  -7391396.261 3
  22750905.926    21077343.330 7   8366358.169 5
 92  5 30  7 18 30.0020000  0  5 21 23 28 11 17
  21362830.900      395308.486 8 -10115349.344 9
  22104447.949     5408753.214 8   4212466.830 7
  21943157.868   -18958407.915 7 -14777718.314 7
  23931947.098   -31893168.916 6  -7460940.255 3
  22765552.886    21154296.448 7   8426321.617 5
 92  5 30  7 19  0.0020000  0  5 21 23 28 11 17
  21362071.406      391314.095 8 -10118461.866 9
  22114943.623     5463902.363 8   4255440.186 7
  21943664.367   -18955727.472 7 -14775629.685 7
  23915021.805   -31982121.188 6  -7530253.690 3
  22780256.866    21231543.323 7   8486513.944 5
 92  5 30  7 19 30.0020000  0  5 21 23 28 11 17
  21361352.893      387540.302 8 -10121402.494 9
  22125458.754     5519164.756 8   4298501.786 8
  21944289.495   -18952433.072 7 -14773062.636 7
  23898148.826   -32070784.115 6  -7599341.649 3
  22795007.225    21309076.054 7   8546929.038 5
 92  5 30  7 20  0.0020000  0  5 21 23 28 11 17
  21360678.810      383993.510 8 -10124166.208 9
  22135996.339     5574541.665 8   4341652.634 7
  21945036.817   -18948522.030 7 -14770015.075 7
  23881330.529   -32159152.768 6  -7668200.334 3
  22809822.069    21386911.135 7   8607579.765 5
 92  5 30  7 20 30.0020000  0  5 21 23 28 11 17
  21360048.436      380675.310 8 -10126751.820 9
  22146560.155     5630045.250 8   4384902.161 7
  21945903.187   -18943980.434 7 -14766476.203 7
  23864574.079   -32247220.598 6  -7736824.597 3
  22824689.496    21465063.460 6   8668477.625 5
 92  5 30  7 21  0.0020000  0  5 21 23 28 11 17
  21359459.824      377588.456 8 -10129157.147 9
  22157147.356     5685677.531 8   4428252.005 7
  21946884.378   -18938797.335 7 -14762437.433 7
  23847869.943   -32334988.655 6  -7805215.240 3
  22839624.587    21543535.030 7   8729624.269 5
 92  5 30  7 21 30.0020000  0  5 21 23 28 11 17
  21358920.617      374750.479 8 -10131368.563 9
  22167760.009     5741461.820 8   4471720.269 7
  21948001.435   -18932951.986 8 -14757882.629 7
  23831228.014   -32422449.973 6  -7873366.917 3
  22854614.779    21622323.611 7   8791017.955 4
 92  5 30  7 22  0.0020000  0  6 12 21 23 28 11 17
  24992791.311   -22278705.67215   -114347.731
  21358427.458      372168.171 8 -10133380.735 9
  22178408.547     5797402.736 8   4515310.582 7
  21949237.179   -18926450.038 7 -14752816.194 7
  23814641.817   -32509599.609 6  -7941275.720 3
  22869664.481    21701414.556 7   8852647.255 4
 92  5 30  7 22 30.0020000  0  6 12 21 23 28 11 17
  24983745.973   -22326284.612 5   -151422.027
  21357986.194      369847.874 8 -10135188.769 9
  22189080.379     5853499.779 8   4559022.559 7
  21950599.526   -18919306.082 8 -14747249.494 7
  23798116.057   -32596435.514 6  -8008940.004 3
  22884771.622    21780791.517 6   8914499.418 4
 92  5 30  7 23  0.0020000  0  6 12 21 23 28 11 17
  24974765.600   -22373469.411 4   -188189.305 1
  21357595.774      367781.167 8 -10136799.175 9
  22199784.889     5909740.473 8   4602846.476 7
  21952072.017   -18911541.523 7 -14741199.191 7
  23781650.916   -32682959.950 6  -8076361.669 3
  22899928.439    21860431.670 7   8976556.636 4
 92  5 30  7 23 30.0020000  0  6 12 21 23 28 11 17
  24965859.485   -22420253.775 4   -224644.538 1
  21357245.137      365949.752 8 -10138226.243 9
  22210512.212     5966104.002 8   4646766.111 7
  21953668.082   -18903168.983 7 -14734675.157 7
  23765247.472   -32769166.723 6  -8143535.735 3
  22915129.446    21940323.030 7   9038809.620 4
 92  5 30  7 24  0.0020000  0  6 12 21 23 28 11 17
  24957029.578   -22466634.491 5   -260784.997 1
  21356935.991      364336.438 8 -10139483.368 9
  22221257.943     6022573.843 8   4690768.571 7
  21955378.008   -18894189.038 8 -14727677.825 7
  23748904.406   -32855052.572 6  -8210459.744 3
  22930382.616    22020463.283 7   9101256.518 4
 92  5 30  7 24 30.0020000  0  6 12 21 23 28 11 17
  24948284.062   -22512607.909 5   -296608.395 1
  21356670.944      362929.021 8 -10140580.056 9
  22232018.934     6079143.652 8   4734848.922 7
  21957207.192   -18884581.144 7 -14720191.156 7
  23732626.215   -32940613.505 6  -8277130.610 3
  22945681.565    22100865.637 7   9163907.685 4
 92  5 30  7 25  0.0020000  0  6 12 21 23 28 11 17
  24939603.422   -22558172.834 5   -332113.438 1
  21356440.074      361723.243 8 -10141519.618 9
  22242799.890     6135795.974 8   4778993.616 7
  21959150.776   -18874339.670 7 -14712210.802 7
  23716404.085   -33025848.301 6  -8343547.317 3
  22961033.487    22181533.674 7   9226765.904 4
 92  5 30  7 25 30.0020000  0  6 12 21 23 28 11 17
  24931020.753   -22603322.370 5   -367294.734 1
  21356254.263      360733.562 8 -10142290.792 9
  22253596.766     6192538.836 8   4823208.831 7
  21961225.130   -18863448.731 8 -14703724.375 7
  23700249.709   -33110749.787 7  -8409704.279 3
  22976434.485    22262484.254 6   9289844.255 4
 92  5 30  7 26  0.0020000  0  6 12 21 23 28 11 17
  24922507.697   -22648054.874 5   -402150.930 1
  21356110.542      359980.952 8 -10142877.251 9
  22264420.502     6249397.357 8   4867514.164 7
  21963420.930   -18851905.961 7 -14694730.024 7
  23684157.389   -33195316.343 6  -8475600.307 3
  22991895.472    22343732.163 6   9353154.260 4
 92  5 30  7 26 30.0020000  0  6 12 21 23 28 11 17
  24914072.766   -22692368.468 5   -436680.871 1
  21356016.527      359473.695 8 -10143272.500 9
  22275263.396     6306384.781 8   4911919.917 7
  21965738.626   -18839722.719 7 -14685236.599 7
  23668123.589   -33279545.990 6  -8541233.787 4
  23007414.468    22425283.466 6   9416700.719 4
 92  5 30  7 27  0.0020000  0  6 12 21 23 28 11 17
  24905722.497   -22736256.613 5   -470879.320 1
  21355965.053      359218.544 8 -10143471.297 9
  22286137.138     6363527.633 8   4956446.840 7
  21968180.045   -18826905.832 7 -14675249.425 7
  23652162.249   -33363431.989 6  -8606599.443 4
  23022994.473    22507130.923 6   9480477.943 4
 92  5 30  7 27 30.0020000  0  6 12 21 23 28 11 17
  24897451.613   -22779725.727 5   -504751.526 1
  21355964.214      359205.165 8 -10143481.733 9
  22297044.877     6420846.026 8   5001110.517 7
  21970734.487   -18813464.378 7 -14664775.598 7
  23636263.475   -33446980.617 6  -8671702.305 4
  23038619.416    22589270.156 7   9544482.492 4
 92  5 30  7 28  0.0020000  0  6 12 21 23 28 11 17
  24889262.272   -22822759.486 4   -538284.262 1
  21356010.142      359445.886 9 -10143294.161 9
  22307986.972     6478345.789 8   5045915.520 7
  21973412.953   -18799398.565 7 -14653815.243 7
  23620434.134   -33530175.367 6  -8736529.375 4
  23054308.185    22671711.946 6   9608722.810 4
 92  5 30  7 28 30.0020000  0  6 12 21 23 28 11 17
  24881154.835   -22865358.497 4   -571478.182 1
  21356101.519      359931.786 9 -10142915.538 9
  22318956.438     6536001.797 8   5090842.262 7
  21976209.267   -18784712.389 7 -14642371.493 7
  23604672.126   -33613016.522 6  -8801080.871 4
  23070055.473    22754451.113 6   9673194.867 4
 92  5 30  7 29  0.0020000  0  6 12 21 23 28 11 17
  24873134.038   -22907522.483 5   -604333.145 1
  21356241.791      360658.349 8 -10142349.383 9
  22329954.414     6593800.087 8   5135879.888 7
  21979119.142   -18769411.260 7 -14630448.554 7
  23588970.915   -33695503.604 6  -8865356.552 4
  23085853.786    22837485.852 6   9737897.258 4
 92  5 30  7 29 30.0020000  0  6 12 21 23 28 11 17
  24865191.846   -22949252.797 5   -636850.353 1
  21356422.746      361621.780 9 -10141598.639 9
  22340971.787     6651700.471 8   5180997.087 7
  21982146.387   -18753504.238 7 -14618053.465 7
  23573343.484   -33777637.620 6  -8929357.039 4
  23101713.317    22920815.738 6   9802829.601 4
 92  5 30  7 30  0.0020000  0  6 12 21 23 28 11 17
  24857333.656   -22990546.708 5   -669027.366 1
  21356645.342      362809.039 9 -10140673.505 9
  22352002.081     6709669.371 8   5226167.639 7
  21985289.411   -18736988.060 7 -14605183.749 7
  23557778.080   -33859415.810 6  -8993080.291 4
  23117623.572    23004426.056 7   9867980.433 4
 92  5 30  7 30 30.0020000  0  6 12 21 23 28 11 17
  24849554.851   -23031390.321 5   -700853.443 2
  21356915.635      364219.840 8 -10139574.173 9
  22363050.212     6767724.001 8   5271404.984 7
  21988555.380   -18719838.458 7 -14591820.446 7
  23542290.891   -33940824.160 6  -9056515.398 4
  23133585.962    23088316.251 7   9933349.393 4
 92  5 30  7 31  0.0020000  0  6 12 21 23 28 11 17
  24841870.961   -23071786.170 5   -732330.574 2
  21357223.642      365835.426 8 -10138315.271 9
  22374116.871     6825862.721 8   5316707.907 7
  21991936.319   -18702059.140 7 -14577966.425 7
  23526868.848   -34021864.528 7  -9119663.679 4
  23149601.534    23172467.548 6   9998921.829 4
 92  5 30  7 31 30.0020000  0  6 12 21 23 28 11 17
  24834270.682   -23111726.767 5   -763453.243 1
  21357573.919      367659.226 9 -10136894.121 9
  22385198.010     6884092.978 8   5362082.126 7
  21995440.983   -18683637.415 7 -14563611.887 7
  23511519.024   -34102529.307 6  -9182519.339 4
  23165658.328    23256872.982 6  10064692.243 4
 92  5 30  7 32  0.0020000  0  6 12 21 23 28 11 17
  24826762.590   -23151212.462 5   -794221.294 1
  21357956.155      369684.790 9 -10135315.762 9
  22396298.575     6942431.842 8   5407540.967 7
  21999068.232   -18664575.097 7 -14548758.157 7
  23496238.722   -34182818.562 6  -9245082.425 4
  23181769.775    23341525.258 6  10130655.041 4
 92  5 30  7 32 30.0020000  0  6 12 21 23 28 11 17
  24819331.574   -23190243.144 5   -824634.699 2
  21358380.301      371914.138 9 -10133578.594 9
  22407422.344     7000888.196 8   5453091.356 7
  22002819.385   -18644876.174 7 -14533408.351 7
  23481034.418   -34262731.885 7  -9307352.515 4
  23197926.130    23426429.062 6  10196813.807 4
 92  5 30  7 33  0.0020000  0  6 12 21 23 28 11 17
  24811992.145   -23228812.246 5   -854688.503 2
  21358845.339      374362.784 8 -10131670.565 9
  22418568.958     7059454.546 8   5498727.483 7
  22006686.648   -18624544.299 7 -14517565.371 7
  23465898.916   -34342262.298 7  -9369324.264 4
  23214134.949    23511598.499 6  10263179.584 4
 92  5 30  7 33 30.0020000  0  6 12 21 23 28 11 17
  24804734.739   -23266913.681 5   -884377.971 1
  21359355.496      377042.981 8 -10129582.095 9
  22429733.079     7118136.833 8   5544453.927 7
  22010676.766   -18603582.396 7 -14501231.457 7
  23450836.833   -34421403.401 7  -9430992.670 4
  23230393.054    23597040.062 6  10329757.399 4
 92  5 30  7 34  0.0020000  0  6 12 21 23 28 11 17
  24797577.015   -23304548.273 5   -913703.568 1
  21359908.643      379947.011 8 -10127319.197 9
  22440924.092     7176934.848 8   5590270.549 7
  22014784.222   -18581989.790 7 -14484406.054 7
  23435854.076   -34500155.653 7  -9492358.023 4
  23246703.772    23682766.804 6  10396557.437 4
 92  5 30  7 34 30.0020000  0  6 12 21 23 28 11 17
  24790504.161   -23341713.296 5   -942663.247 1
  21360505.410      383078.225 9 -10124879.295 9
  22452133.451     7235846.036 8   5636175.366 6
  22019016.062   -18559764.380 7 -14467087.570 7
  23420938.502   -34578515.808 7  -9553417.886 4
  23263077.237    23768782.543 6  10463582.671 4
 92  5 30  7 35  0.0020000  0  6 12 21 23 28 11 17
  24783526.402   -23378411.291 5   -971258.972 1
  21361145.107      386435.188 8 -10122263.486 9
  22463364.486     7294872.367 8   5682169.909 7
  22023362.393   -18536919.525 7 -14449286.417 7
  23406102.283   -34656486.358 7  -9614174.176 4
  23279499.058    23855091.688 6  10530836.508 4
 92  5 30  7 35 30.0020000  0  6 12 21 23 28 11 17
  24776632.974   -23414632.122 5   -999483.044 1
  21361825.876      390015.008 8 -10119474.008 9
  22474626.190     7354036.049 8   5728271.461 6
  22027827.982   -18513447.163 8 -14430996.280 7
  23391343.770   -34734056.522 7  -9674618.408 4
  23295978.440    23941707.010 6  10598328.931 4
 92  5 30  7 36  0.0020000  0  6 12 21 23 28 11 17
  24769832.002   -23450371.876 5  -1027332.171 1
  21362552.153      393830.149 8 -10116501.164 9
  22485912.087     7413332.146 8   5774476.209 6
  22032415.196   -18489350.407 7 -14412219.591 7
  23376656.158   -34811222.039 7  -9734747.393 4
  23312523.416    24028632.486 6  10666063.044 4
 92  5 30  7 36 30.0020000  0  6 12 21 23 28 11 17
  24763124.745   -23485634.692 5  -1054809.606 1
  21363320.851      397889.468 8 -10113338.056 9
  22497216.991     7472753.007 8   5820778.171 6
  22037115.402   -18464655.367 7 -14392976.745 7
  23362050.659   -34887986.594 7  -9794563.914 4
  23329117.438    24115845.896 6  10734021.495 4
 92  5 30  7 37  0.0020000  0  6 12 21 23 28 11 17
  24756500.921   -23520413.723 5  -1081910.015 2
  21364142.072      402192.737 8 -10109984.851 9
  22508548.426     7532302.787 8   5867180.583 6
  22041924.313   -18439361.208 7 -14373267.024 7
  23347520.678   -34964342.746 7  -9854062.191 4
  23345771.329    24203354.702 6  10802210.150 3
 92  5 30  7 37 30.0020000  0  6 12 21 23 28 11 17
  24749974.739   -23554707.777 5  -1108632.543 1
  21365006.464      406737.488 8 -10106443.464 9
  22519899.918     7591975.412 8   5913678.719 6
  22046851.432   -18413464.319 7 -14353087.642 7
  23333067.144   -35040289.107 7  -9913241.197 4
  23362475.225    24291140.280 6  10870614.483 3
 92  5 30  7 38  0.0020000  0  6 12 21 23 28 11 17
  24743539.964   -23588516.468 5  -1134976.876 1
  21365918.612      411519.200 8 -10102717.459 9
  22531279.979     7651760.319 8   5960264.344 6
  22051897.479   -18386963.464 7 -14332437.649 7
  23318692.305   -35115824.642 7  -9972100.031 4
  23379228.707    24379179.036 6  10939216.108 3
 92  5 30  7 38 30.0020000  0  6 12 21 23 28 11 17
  24737196.475   -23621833.734 5  -1160938.540 1
  21366866.856      416512.425 9 -10098826.641 9
  22542682.376     7711666.997 8   6006944.891 6
  22057058.916   -18359840.226 7 -14311302.680 7
  23304399.460   -35190942.910 7 -10030633.707 4
  23396025.688    24467464.405 6  11008009.867 3
 92  5 30  7 39  0.0020000  0  6 12 21 23 28 11 17
  24730957.854   -23654652.648 5  -1186511.563 1
  21367857.550      421706.812 9 -10094779.057 9
  22554100.751     7771681.230 8   6053709.209 6
  22062340.659   -18332080.389 7 -14289671.664 7
  23290187.109   -35265636.497 7 -10088836.526 4
  23412873.485    24556000.617 6  11076999.062 3
 92  5 30  7 39 30.0020000  0  6 12 21 23 28 11 17
  24724798.019   -23686976.343 5  -1211698.776 2
  21368883.410      427099.203 9 -10090577.190 9
  22565539.422     7831784.698 8   6100543.081 6
  22067743.009   -18303694.670 7 -14267552.962 7
  23276051.625   -35339907.856 7 -10146710.308 4
  23429771.916    24644769.389 6  11146169.526 3
 92  5 30  7 40  0.0020000  0  6 12 21 23 28 11 17
  24718748.387   -23718798.891 5  -1236495.534 1
  21369946.054      432693.262 9 -10086218.190 9
  22576987.327     7891962.914 8   6147435.166 6
  22073264.827   -18274690.896 7 -14244952.629 7
  23261997.055   -35413750.534 7 -10204250.032 4
  23446704.674    24733777.580 6  11215526.547 3
 92  5 30  7 40 30.0020000  0  6 12 21 23 28 11 17
  24712792.020   -23750117.880 5  -1260900.079 1
  21371053.667      438505.742 9 -10081688.982 9
  22588453.609     7952209.701 8   6194380.731 6
  22078897.447   -18245078.791 7 -14221878.282 7
  23248032.152   -35487161.983 7 -10261453.767 4
  23463694.153    24823046.562 6  11285086.753 3
 92  5 30  7 41  0.0020000  0  6 12 21 23 28 11 17
  24706935.514   -23780935.240 5  -1284913.429 2
  21372202.622      444558.374 8 -10076972.620 9
  22599927.206     8012509.718 8   6241367.749 7
  22084644.259   -18214881.944 7 -14198348.319 7
  23234144.027   -35560142.945 7 -10318322.024 4
  23480732.047    24912587.737 6  11354859.069 3
 92  5 30  7 41 30.0020000  0  6 12 21 23 28 11 17
  24701155.786   -23811250.840 5  -1308535.918 2
  21373403.051      450852.008 9 -10072068.502 9
  22611417.711     8072883.587 8   6288412.305 7
  22090502.084   -18184098.778 7 -14174361.454 7
  23220336.695   -35632693.053 7 -10374854.568 4
  23497823.845    25002400.731 6  11424843.212 3
 92  5 30  7 42  0.0020000  0  6 12 21 23 28 11 17
  24695482.123   -23841053.953 5  -1331759.017 2
  21374648.359      457398.325 9 -10066967.462 9
  22622926.624     8133358.661 8   6335535.723 6
  22096475.568   -18152711.984 7 -14149904.219 7
  23206615.135   -35704801.080 7 -10431042.648 4
  23514975.631    25092501.407 6  11495051.507 3
 92  5 30  7 42 30.0020000  0  6 12 21 23 28 11 17
  24689915.907   -23870341.834 5  -1354580.836 1
  21375938.756      464192.519 8 -10061673.274 9
  22634456.912     8193956.853 8   6382755.104 7
  22102566.751   -18120711.747 7 -14124968.996 7
  23192977.006   -35776463.449 7 -10486883.427 4
  23532172.986    25182898.034 6  11565490.387 3
 92  5 30  7 43  0.0020000  0  6 12 21 23 28 11 17
  24684439.838   -23899112.105 5  -1376999.142 2
  21377278.828      471211.361 9 -10056204.042 9
  22646012.832     8254691.761 8   6430080.999 7
  22108772.215   -18088091.433 7 -14099550.619 7
  23179425.458   -35847677.276 7 -10542374.703 4
  23549423.313    25273574.470 6  11636147.318 3
 92  5 30  7 43 30.0020000  0  6 12 21 23 28 11 17
  24679061.591   -23927366.376 5  -1399015.383 2
  21378650.198      478427.474 9 -10050581.097 9
  22657601.489     8315575.425 8   6477522.815 7
  22115096.697   -18054845.129 8 -14073644.406 7
  23165960.669   -35918443.329 7 -10597517.077 4
  23566734.469    25364522.826 6  11707016.173 3
 92  5 30  7 44  0.0020000  0  6 12 21 23 28 11 17
  24673788.751   -23955101.169 5  -1420626.835 2
  21380056.975      485839.113 9 -10044805.788 9
  22669209.333     8376592.385 8   6525068.474 6
  22121540.976   -18020980.982 7 -14047256.796 7
  23152581.142   -35988757.943 7 -10652307.674 4
  23584091.253    25455748.345 6  11778100.956 3
 92  5 30  7 44 30.0020000  0  6 12 21 23 28 11 17
  24668600.543   -23982311.997 5  -1441830.140 2
  21381506.981      493439.518 9 -10038883.378 9
  22680846.287     8437733.307 8   6572710.759 6
  22128101.154   -17986512.052 7 -14020397.921 7
  23139288.374   -36058615.791 7 -10706742.341 4
  23601504.998    25547245.463 6  11849397.366 3
 92  5 30  7 45  0.0020000  0  6 12 21 23 28 11 17
  24663529.224   -24008996.096 5  -1462622.907 2
  21382990.774      501235.486 9 -10032808.583 9
  22692502.218     8498982.938 8   6620437.751 6
  22134775.374   -17951450.382 7 -13993077.168 7
  23126082.906   -36128013.362 7 -10760818.375 4
  23618967.639    25639000.418 6  11920894.720 3
 92  5 30  7 45 30.0020000  0  6 12 21 23 28 11 17
  24658552.369   -24035152.304 5  -1483004.275 2
  21384515.368      509240.498 9 -10026570.906 9
  22704174.247     8560327.363 8   6668238.590 6
  22141561.086   -17915797.130 7 -13965295.458 7
  23112962.759   -36196948.840 7 -10814534.318 5
  23636472.461    25731010.526 6  11992590.895 4
 92  5 30  7 46  0.0020000  0  6 12 21 23 28 11 17
  24653673.217   -24060774.442 5  -1502969.538 2
  21386079.505      517473.492 9 -10020155.579 9
  22715863.065     8621757.252 8   6716106.003 6
  22148455.234   -17879556.138 7 -13937055.764 7
  23099934.948   -36265415.186 7 -10867884.689 5
  23654033.673    25823265.466 6  12064477.808 4
 92  5 30  7 46 30.0020000  0  6 12 21 23 28 11 17
  24648900.581   -24085866.977 5  -1522522.215 2
  21387690.560      525932.640 9 -10013564.024 9
  22727568.342     8683262.970 8   6764032.548 6
  22155459.764   -17842734.408 7 -13908363.527 7
  23086992.098   -36333416.501 7 -10920872.751 5
  23671626.454    25915746.432 6  12136540.853 4
 92  5 30  7 47  0.0020000  0  6 12 21 23 28 11 17
  24644229.995   -24110423.055 5  -1541656.755 2
  21389344.695      534621.199 9 -10006793.717 9
  22739288.068     8744846.789 8   6812019.935 6
  22162583.283   -17805304.551 7 -13879197.436 7
  23074141.614   -36400944.986 7 -10973492.325 5
  23689267.501    26008468.482 6  12208791.770 4
 92  5 30  7 47 30.0020000  0  6 12 21 23 28 11 17
  24639655.551   -24134434.552 5  -1560366.906 2
  21391041.160      543532.843 9  -9999849.563 9
  22751025.932     8806522.332 8   6860078.792 6
  22169824.350   -17767257.229 7 -13849550.200 7
  23061382.027   -36467991.793 7 -11025736.558 5
  23706962.811    26101448.026 6  12281243.346 3
 92  5 30  7 48  0.0020000  0  6 12 21 23 28 11 17
  24635190.682   -24157904.996 5  -1578655.539 2
  21392778.967      552665.198 9  -9992733.433 9
  22762775.818     8868282.904 8   6908203.887 6
  22177173.013   -17728608.374 7 -13819434.240 7
  23048718.194   -36534559.602 7 -11077607.603 5
  23724711.544    26194687.891 6  12353897.750 3
 92  5 30  7 48 30.0020000  0  6 12 21 23 28 11 17
  24630829.482   -24180831.030 5  -1596520.030 2
  21394558.026      562021.106 9  -9985443.084 9
  22774547.139     8930131.662 8   6956397.732 6
  22184649.837   -17689350.338 7 -13788843.567 7
  23036142.051   -36600644.558 7 -11129102.338 5
  23742506.175    26288206.356 6  12426769.288 3
 92  5 30  7 49  0.0020000  0  6 12 21 23 28 11 17
  24626571.559   -24203212.488 5  -1613960.090 2
  21396379.025      571592.716 9  -9977984.696 9
  22786338.216     8992083.367 8   7004671.792 6
  22192232.727   -17649493.261 7 -13757786.141 6
  23023656.025   -36666245.501 7 -11180219.971 5
  23760358.786    26382014.612 6  12499866.627 3
 92  5 30  7 49 30.0020000  0  6 12 21 23 28 11 17
  24622413.258   -24225047.755 5  -1630974.494 2
  21398243.314      581391.188 9  -9970349.512 9
  22798146.112     9054144.737 7   7053031.281 6
  22199926.661   -17609062.679 7 -13726281.810 6
  23011265.362   -36731359.881 7 -11230958.454 5
  23778263.651    26476097.242 6  12573177.733 3
 92  5 30  7 50  0.0020000  0  6 12 21 23 28 11 17
  24618358.895   -24246333.433 5  -1647560.729 2
  21400152.033      591417.321 9  -9962536.939 9
  22809974.993     9116316.237 7   7101476.586 6
  22207728.340   -17568057.365 7 -13694329.657 6
  22998969.525   -36795983.810 7 -11281314.746 5
  23796217.591    26570445.903 6  12646696.110 3
 92  5 30  7 50 30.0020000  0  6 12 21 23 28 11 17
  24614416.204   -24267065.224 5  -1663715.429 2
  21402098.945      601655.644 9  -9954559.019 9
  22821827.168     9178607.667 7   7150015.364 6
  22215644.389   -17526478.463 7 -13661930.575 6
  22986766.443   -36860112.193 7 -11331284.921 5
  23814216.051    26665052.288 6  12720415.365 3
 92  5 30  7 51  0.0020000  0  6 12 21 23 28 11 17
  24610570.706   -24287235.600 5  -1679432.526 2
  21404085.580      612095.698 9  -9946423.887 9
  22833706.834     9241026.516 7   7198653.429 6
  22223663.928   -17484329.599 7 -13629087.300 6
  22974659.414   -36923736.582 7 -11380862.370 5
  23832265.896    26759905.681 6  12794327.115 3
 92  5 30  7 51 30.0020000  0  6 12 21 23 28 11 17
  24606847.614   -24306844.652 5  -1694712.237 2
  21406109.928      622734.270 9  -9938134.086 9
  22845608.444     9303564.143 8   7247383.993 6
  22231793.310   -17441599.343 7 -13595791.020 6
  22962650.058   -36986856.171 7 -11430046.456 5
  23850357.471    26854994.124 6  12868421.956 3
 92  5 30  7 52  0.0020000  0  6 12 21 23 28 11 17
  24603222.434   -24325893.028 5  -1709555.119 2
  21408173.910      633565.891 9  -9929693.843 9
  22857529.602     9366211.985 7   7296200.508 6
  22240035.714   -17398284.861 7 -13562039.523 6
  22950732.499   -37049470.733 7 -11478837.033 5
  23868501.720    26950324.717 6  12942705.491 3
 92  5 30  7 52 30.0020000  0  6 12 21 23 28 11 17
  24599703.290   -24344384.323 5  -1723963.979 2
  21410271.617      644603.306 9  -9921093.264 9
  22869472.494     9428961.842 7   7345096.497 6
  22248388.231   -17354393.024 7 -13527838.131 6
  22938913.571   -37111582.998 7 -11527236.209 5
  23886688.749    27045895.873 6  13017176.482 3
 92  5 30  7 53  0.0020000  0  6 12 21 23 28 11 17
  24596292.581   -24362309.882 5  -1737931.841 2
  21412416.033      655872.922 9  -9912311.732 9
  22881431.754     9491808.348 8   7394067.779 6
  22256854.250   -17309910.639 7 -13493176.540 6
  22927192.045   -37173183.676 7 -11575236.723 5
  23904920.448    27141717.802 6  13091842.889 3
 92  5 30  7 53 30.0020000  0  6 12 21 23 28 11 17
  24592987.969   -24379671.288 5  -1751460.140 2
  21414605.147      667380.951 9  -9903344.423 9
  22893407.054     9554745.122 7   7443109.402 6
  22265431.343   -17264843.622 7 -13458059.398 6
  22915567.203   -37234273.182 7 -11622838.955 5
  23923208.627    27237802.431 6  13166714.025 2
 92  5 30  7 54  0.0020000  0  6 12 21 23 28 11 17
  24589796.768   -24396469.234 5  -1764549.391 2
  21416840.130      679125.299 9  -9894192.973 9
  22905399.502     9617758.019 7   7492210.353 6
  22274116.030   -17219212.292 7 -13422502.545 6
  22904038.744   -37294851.382 7 -11670042.747 5
  23941547.442    27334144.196 6  13241785.519 3
 92  5 30  7 54 30.0020000  0  6 12 21 23 28 11 17
  24586702.250   -24412699.964 5  -1777196.776 2
  21419120.831      691095.010 9  -9884865.931 9
  22917404.421     9680851.216 7   7541373.888 6
  22282904.956   -17173013.100 7 -13386503.200 6
  22892611.075   -37354913.714 7 -11716844.570 5
  23959921.182    27430735.676 5  13317051.575 3
 92  5 30  7 55  0.0020000  0  6 12 21 23 28 11 17
  24583721.354   -24428363.100 5  -1789401.758 2
  21421437.028      703271.207 9  -9875377.985 9
  22929422.291     9744023.716 7   7590599.184 6
  22291806.633   -17126252.837 7 -13350066.658 6
  22881278.950   -37414458.658 7 -11763243.256 5
  23978344.058    27527573.347 5  13392509.448 3
 92  5 30  7 55 30.0020000  0  6 12 21 23 28 11 17
  24580853.209   -24443455.861 5  -1801162.268 2
  21423790.728      715644.569 9  -9865736.386 9
  22941463.725     9807282.821 7   7639891.965 6
  22300805.594   -17078934.700 7 -13313195.409 6
  22870047.975   -37473482.557 7 -11809235.899 5
  23996826.473    27624653.766 5  13468156.476 3
 92  5 30  7 56  0.0020000  0  6 12 21 23 28 11 17
  24578093.440   -24457977.364 5  -1812477.755 2
  21426181.423      728219.339 9  -9855937.858 9
  22953517.780     9870631.084 7   7689254.281 6
  22309919.584   -17031056.969 7 -13275888.105 6
  22858914.433   -37531983.516 7 -11854821.074 5
  24015345.612    27721952.683 6  13543973.771 3
 92  5 30  7 56 30.0020000  0  6 12 21 23 28 11 17
  24575444.774   -24471924.412 5  -1823345.599 2
  21428615.198      741000.966 9  -9845978.148 9
  22965587.694     9934075.193 7   7738691.229 6
  22319135.684   -16982613.918 7 -13238140.303 6
  22847878.683   -37589957.663 7 -11899995.753 5
  24033900.157    27819477.297 5  13619966.936 3
 92  5 30  7 57  0.0020000  0  6 12 21 23 28 11 17
  24572889.493   -24485292.494 5  -1833762.202 2
  21431091.544      754005.765 9  -9835844.555 9
  22977684.230     9997618.250 7   7788205.257 6
  22328464.925   -16933605.656 7 -13199952.104 6
  22836951.697   -37647398.994 7 -11944755.223 5
  24052501.200    27917243.810 6  13696148.558 3
 92  5 30  7 57 30.0020000  0  6 12 21 23 28 11 17
  24570459.195   -24498077.610 5  -1843724.596 2
  21433609.231      767243.647 9  -9825529.290 9
  22989793.957    10061259.504 7   7837795.843 6
  22337899.214   -16884027.421 7 -13161319.711 6
  22826123.344   -37704303.157 7 -11989096.151 5
  24071152.338    28015250.198 6  13772517.170 3
 92  5 30  7 58  0.0020000  0  6 12 21 23 28 11 17
  24568136.493   -24510281.230 5  -1853233.900 2
  21436172.607      780705.529 9  -9815039.526 9
  23001920.742    10124998.035 7   7887462.233 6
  22347439.180   -16833888.951 7 -13122250.818 6
  22815396.410   -37760670.104 7 -12033018.471 5
  24089851.353    28113499.470 6  13849075.054 3
 92  5 30  7 58 30.0020000  0  6 12 21 23 28 11 17
  24565929.811   -24521902.071 5  -1862289.102 2
  21438773.576      794383.026 9  -9804381.726 9
  23014069.831    10188833.375 7   7937204.055 6
  22357086.621   -16783193.851 7 -13082748.187 6
  22804775.123   -37816497.737 7 -12076520.510 5
  24108594.467    28212002.370 6  13925830.520 3
 92  5 30  7 59  0.0020000  0  6 12 21 23 28 11 17
  24563823.649   -24532937.995 5  -1870888.460 2
  21441419.064      808275.209 9  -9793556.641 9
  23026233.220    10252757.915 7   7987015.372 5
  22366837.371   -16731939.595 7 -13042809.820 6
  22794252.617   -37871783.024 7 -12119599.980 5
  24127381.651    28310747.091 6  14002774.435 3
 92  5 30  7 59 30.0020000  0  6 12 21 23 28 11 17
  24561833.297   -24543391.093 5  -1879033.665 2
  21444098.639      822365.907 9  -9782576.872 9
  23038414.717    10316764.477 7   8036890.597 5
  22376698.144   -16680134.114 7 -13002441.924 6
  22783834.170   -37926526.840 7 -12162257.498 5
  24146213.924    28409713.779 6  14079891.282 3
 92  5 30  8  0  0.0020000  0  6 12 21 23 28 11 17
  24559958.574   -24553252.559 5  -1886718.021 2
  21446819.436      836662.495 8  -9771436.668 9
  23050608.626    10380861.907 7   8086836.655 5
  22386666.094   -16627774.839 7 -12961642.520 6
  22773521.369   -37980719.519 7 -12204485.579 5
  24165089.247    28508918.155 6  14157193.387 3
 92  5 30  8  0 30.0020000  0  6 12 21 23 28 11 17
  24558193.396   -24562529.419 5  -1893946.679 2
  21449579.565      851167.170 9  -9760134.326 9
  23062820.971    10445033.274 7   8136840.311 5
  22396729.437   -16574869.393 7 -12920417.540 6
  22763315.355   -38034366.884 7 -12246288.741 5
  24184012.746    28608348.281 6  14234671.367 2
 92  5 30  8  1  0.0020000  0  6 12 21 23 28 11 17
  24556537.763   -24571217.142 5  -1900716.295 2
  21452379.657      865883.330 8  -9748667.185 9
  23075047.827    10509282.279 7   8186904.434 5
  22406903.643   -16521417.439 7 -12878766.674 6
  22753208.392   -38087463.321 7 -12287662.591 5
  24202979.266    28708011.092 6  14312330.641 2
 92  5 30  8  1 30.0020000  0  6 12 21 23 28 11 17
  24554998.898   -24579307.395 5  -1907020.423 2
  21455223.458      880820.066 8  -9737028.176 9
  23087297.377    10573639.510 7   8237052.894 5
  22417176.212   -16467414.611 7 -12836686.582 6
  22743213.731   -38139999.301 8 -12328599.742 5
  24221998.519    28807920.264 6  14390181.963 2
 92  5 30  8  2  0.0020000  0  6 12 21 23 28 11 17
  24553572.276   -24586800.459 6  -1912859.197 2
  21458106.532      895978.904 8  -9725216.077 9
  23099564.584    10638104.447 7   8287285.348 5
  22427558.235   -16412867.623 7 -12794182.480 6
  22733323.278   -38191974.273 7 -12369099.717 5
  24241051.229    28908080.093 6  14468228.562 2
 92  5 30  8  2 30.0020000  0  6 12 21 23 28 11 17
  24552264.041   -24593696.696 6  -1918232.826 2
  21461028.639      911337.683 8  -9713248.195 9
  23111848.250    10702675.138 7   8337600.180 5
  22438041.197   -16357780.780 7 -12751257.667 6
  22723539.401   -38243387.367 7 -12409161.876 5
  24260157.902    29008473.923 6  14546457.454 2
 92  5 30  8  3  0.0020000  0  6 12 21 23 28 11 17
  24551063.732   -24599992.599 6  -1923138.708 2
  21463990.139      926894.025 9  -9701126.357 9
  23124156.410    10767357.576 7   8388002.024 5
  22448623.242   -16302160.849 7 -12707917.476 6
  22713863.390   -38294234.130 8 -12448782.750 5
  24279303.248    29109095.620 6  14624863.943 2
 92  5 30  8  3 30.0020000  0  6 12 21 23 28 11 17
  24549975.965   -24605688.169 5  -1927576.790 2
  21466986.385      942642.701 9  -9688854.673 9
  23136483.006    10832138.045 7   8438480.321 5
  22459307.605   -16246026.626 7 -12664176.587 6
  22704294.134   -38344513.211 7 -12487961.282 5
  24298492.124    29209941.069 6  14703444.809 2
 92  5 30  8  4  0.0020000  0  6 12 21 23 28 11 17
  24549011.353   -24610782.327 6  -1931546.303 2
  21470020.494      958571.184 9  -9676442.858 9
  23148826.601    10896991.790 7   8489015.726 5
  22470083.225   -16189387.988 7 -12620042.577 6
  22694836.731   -38394222.621 8 -12526695.870 5
  24317727.438    29311005.691 6  14782196.439 2
 92  5 30  8  4 30.0020000  0  6 12 21 23 28 11 17
  24548154.636   -24615273.859 6  -1935046.166 2
  21473085.932      974694.248 9  -9663879.443 9
  23161182.517    10961914.363 7   8539604.738 5
  22480958.856   -16132243.888 7 -12575514.723 6
  22685485.036   -38443359.737 7 -12564984.573 5
  24337002.084    29412280.742 6  14861111.971 2
 92  5 30  8  5  0.0020000  0  6 12 21 23 28 11 17
  24547420.684   -24619160.935 5  -1938075.035 2
  21476195.649      991039.864 9  -9651142.593 9
  23173548.446    11026906.786 7   8590248.126 5
  22491928.832   -16074592.738 7 -12530591.781 6
  22676244.593   -38491921.689 7 -12602825.038 5
  24356311.267    29513773.341 5  14940197.111 2
 92  5 30  8  5 30.0020000  0  6 12 21 23 28 11 17
  24546791.390   -24622439.563 5  -1940629.828 2
  21479348.446     1007608.205 9  -9638232.201 9
  23185933.412    11091976.312 7   8640951.650 5
  22503001.816   -16016411.627 7 -12485255.891 6
  22667114.863   -38539903.551 7 -12640213.514 5
  24375660.561    29615483.497 5  15019451.775 2
 92  5 30  8  6  0.0020000  0  6 12 21 23 28 11 17
  24546287.888   -24625112.736 5  -1942712.797 2
  21482544.474     1024399.764 9  -9625147.867 9
  23198326.713    11157131.308 7   8691721.787 5
  22514180.267   -15957678.804 7 -12439490.073 5
  22658092.759   -38587306.749 7 -12677151.079 5
  24395064.898    29717401.812 5  15098868.576 2
 92  5 30  8  6 30.0020000  0  6 12 21 23 28 11 17
  24545892.732   -24627178.630 5  -1944322.545 2
  21485782.622     1041420.043 9  -9611885.303 9
  23210744.806    11222380.562 7   8742565.355 5
  22525458.699   -15898391.919 7 -12393292.555 5
  22649182.567   -38634128.703 7 -12713635.709 5
  24414495.526    29819534.102 5  15178452.127 2
 92  5 30  8  7  0.0020000  0  6 12 21 23 28 11 17
  24545609.668   -24628637.595 5  -1945459.447 2
  21489064.090     1058649.513 9  -9598459.741 9
  23223179.058    11287732.422 7   8793488.840 5
  22536844.607   -15838557.828 7 -12346668.641 5
  22640382.399   -38680368.436 7 -12749666.686 5
  24433970.914    29921892.347 5  15258211.780 2
 92  5 30  8  7 30.0030000  0  6 12 21 23 28 11 17
  24545446.461   -24629484.438 5  -1946119.338 2
  21492377.936     1076079.885 9  -9584877.639 9
  23235638.912    11353188.386 7   8844493.491 5
  22548336.222   -15778185.177 7 -12299625.026 6
  22631694.864   -38726020.822 7 -12785239.980 5
  24453496.097    30024486.709 5  15338155.362 2
 92  5 30  8  8  0.0030000  0  6 12 21 23 28 11 17
  24545407.998   -24629717.933 5  -1946301.230 2
  21495735.822     1093714.897 9  -9571136.070 9
  23248110.308    11418732.675 7   8895566.966 5
  22559919.783   -15717303.360 7 -12252184.676 6
  22623122.718   -38771080.757 7 -12820351.612 5
  24473057.945    30127313.813 5  15418280.298 2
 92  5 30  8  8 30.0030000  0  6 12 21 23 28 11 17
  24545472.663   -24629339.100 5  -1946006.070 2
  21499133.610     1111564.086 9  -9557227.619 9
  23260598.553    11484364.092 7   8946708.283 5
  22571593.851   -15655938.691 7 -12204368.108 6
  22614660.866   -38815549.263 7 -12855002.421 5
  24492675.793    30230373.712 5  15498586.690 2
 92  5 30  8  9  0.0030000  0  6 12 21 23 28 11 17
  24545671.095   -24628340.034 5  -1945227.610 2
  21502569.021     1129638.917 9  -9543143.335 9
  23273108.292    11550088.705 7   8997922.237 5
  22583364.662   -15594095.058 7 -12156178.282 6
  22606311.436   -38859417.550 7 -12889185.516 5
  24512331.596    30333658.071 5  15579067.923 2
 92  5 30  8  9 30.0030000  0  6 12 21 23 28 11 17
  24545974.905   -24626724.203 6  -1943968.480 2
  21506051.920     1147932.722 9  -9528888.432 9
  23285632.302    11615894.796 7   9049199.738 5
  22595224.991   -15531769.113 7 -12107612.636 6
  22598077.187   -38902687.355 7 -12922902.232 5
  24532022.864    30437147.247 6  15659708.799 2
 92  5 30  8 10  0.0030000  0  6 12 21 23 28 11 17
  24546401.330   -24624489.579 5  -1942227.158 2
  21509577.329     1166452.744 9  -9514457.231 9
  23298170.432    11681792.773 7   9100548.803 5
  22607180.505   -15468947.698 7 -12058660.936 6
  22589956.529   -38945355.872 7 -12956150.418 5
  24551757.992    30540839.933 6  15740508.274 2
 92  5 30  8 10 30.0030000  0  6 12 21 23 28 11 17
  24546946.622   -24621633.652 5  -1940001.803 2
  21513142.641     1185198.618 9  -9499850.072 9
  23310725.860    11747789.845 7   9151975.053 5
  22619230.602   -15405630.170 7 -12009322.598 6
  22581951.650   -38987419.209 7 -12988927.057 5
  24571531.253    30644742.803 6  15821471.585 2
 92  5 30  8 11  0.0030000  0  6 12 21 23 28 11 17
  24547610.303   -24618162.238 5  -1937296.800 2
  21516749.085     1204139.946 9  -9485090.609 9
  23323304.642    11813872.150 7   9203467.727 5
  22631374.445   -15341805.862 7 -11959589.392 6
  22574062.612   -39028881.649 7 -13021235.449 5
  24591338.960    30748851.984 6  15902595.519 2
 92  5 30  8 11 30.0030000  0  6 12 21 23 28 11 17
  24548386.466   -24614069.651 6  -1934107.700 2
  21520391.323     1223276.545 9  -9470178.957 9
  23335898.773    11880048.772 7   9255033.934 5
  22643617.790   -15277459.768 7 -11909449.643 6
  22566287.794   -39069736.652 7 -13053070.515 5
  24611193.585    30853190.547 6  15983898.242 2
 92  5 30  8 12  0.0030000  0  6 12 21 23 28 11 17
  24549278.978   -24609356.593 5  -1930435.193 2
  21524070.256     1242620.774 9  -9455105.547 9
  23348504.357    11946314.093 7   9306669.239 5
  22655956.348   -15212614.190 7 -11858920.655 6
  22558633.463   -39109983.542 8 -13084431.738 5
  24631096.087    30957758.707 5  16065379.915 2
 92  5 30  8 12 30.0030000  0  6 12 21 23 28 11 17
  24550290.897   -24604020.585 5  -1926277.312 2
  21527785.254     1262153.600 9  -9439885.172 9
  23361129.457    12012661.687 7   9358368.617 5
  22668392.279   -15147274.136 7 -11808006.353 5
  22551091.764   -39149618.722 7 -13115316.280 6
  24651038.971    31062541.209 5  16147028.562 2
 92  5 30  8 13  0.0030000  0  6 12 21 23 28 11 17
  24551431.817   -24598060.663 6  -1921633.174 2
  21531540.335     1281868.219 9  -9424523.137 9
  23373775.542    12079102.207 7   9410140.440 5
  22680919.646   -15081433.571 7 -11756702.059 5
  22543663.477   -39188639.617 7 -13145722.189 6
  24671013.003    31167528.402 5  16228836.707 2
 92  5 30  8 13 30.0030000  0  6 12 21 23 28 11 17
  24552682.911   -24591469.622 6  -1916497.280 2
  21535331.270     1301790.256 9  -9408999.473 9
  23386437.606    12145650.617 7   9461996.345 5
  22693550.892   -15015101.292 7 -11705014.597 5
  22536358.704   -39227037.767 7 -13175642.819 6
  24691025.739    31272718.106 5  16310802.668 2
 92  5 30  8 14  0.0030000  0  6 12 21 23 28 11 17
  24554055.991   -24584251.254 6  -1910872.576 2
  21539158.541     1321914.282 9  -9393318.434 9
  23399115.379    12212293.283 7   9513925.671 5
  22706257.895   -14948292.221 7 -11652955.597 5
  22529165.034   -39264815.928 7 -13205080.363 6
  24711080.895    31378083.587 5  16392905.590 2
 92  5 30  8 14 30.0030000  0  6 12 21 23 28 11 17
  24555546.979   -24576405.763 6  -1904759.247 2
  21543023.435     1342231.863 9  -9377486.559 9
  23411820.314    12279036.219 7   9565933.104 5
  22719064.819   -14881004.060 7 -11600523.314 5
  22522097.336   -39301972.694 7 -13234033.684 5
  24731162.762    31483624.839 5  16475145.453 2
 92  5 30  8 15  0.0030000  0  6 12 21 23 28 11 17
  24557155.215   -24567930.394 5  -1898155.021 2
  21546932.729     1362762.347 8  -9361488.771 9
  23424543.416    12345883.579 7   9618021.971 5
  22731955.085   -14813247.902 7 -11547726.360 5
  22515142.061   -39338504.205 7 -13262499.799 6
  24751282.584    31589360.395 5  16557536.762 2
 92  5 30  8 15 30.0030000  0  6 12 21 23 28 11 17
  24558894.941   -24558821.536 6  -1891057.151 2
  21550882.495     1383516.577 9  -9345316.650 8
  23437276.471    12412821.359 6   9670181.294 5
  22744936.488   -14745030.728 7 -11494570.129 6
  22508312.639   -39374405.510 7 -13290474.832 6
  24771446.714    31695294.933 5  16640083.154 2
 92  5 30  8 16  0.0030000  0  6 12 21 23 28 11 17
  24560755.633   -24549083.130 6  -1883468.833 2
  21554870.514     1404478.522 9  -9328982.674 8
  23450030.572    12479833.549 7   9722398.535 5
  22758001.354   -14676367.848 7 -11441066.607 6
  22501600.646   -39409679.026 7 -13317960.693 6
  24791643.282    31801432.115 5  16722787.479 2
 92  5 30  8 16 30.0030000  0  6 12 21 23 28 11 17
  24562725.479   -24538716.618 6  -1875391.059 2
  21558898.465     1425652.675 9  -9312483.349 8
  23462793.936    12546914.833 7   9774669.637 5
  22771151.300   -14607261.301 7 -11387217.388 5
  22495008.630   -39444325.111 7 -13344957.663 5
  24811876.755    31907782.745 5  16805657.989 2
 92  5 30  8 17  0.0030000  0  6 12 21 23 28 11 17
  24564821.028   -24527724.440 6  -1866825.646 2
  21562971.475     1447049.035 9  -9295810.848 8
  23475573.908    12614052.653 7   9826984.841 5
  22784390.944   -14537700.386 7 -11333014.129 6
  22488535.301   -39478344.700 7 -13371466.425 6
  24832151.809    32014337.708 5  16888687.784 2
 92  5 30  8 17 30.0030000  0  6 12 21 23 28 11 17
  24567027.890   -24516101.221 6  -1857768.589 2
  21567086.936     1468668.151 9  -9278964.798 8
  23488360.716    12681246.466 7   9879343.666 5
  22797720.197   -14467661.380 7 -11278438.297 5
  22482178.262   -39511731.286 7 -13397481.982 5
  24852480.316    32121090.698 5  16971871.921 2
